GW0748 Weather Reports


time (UTC)temp
C
wind
direction
speed
KPH
gust
KPH
rain 1hr
cm
rain 24hr
cm
rain mn
cm
humidity
%
barometer
mb
20260508033804 15 338 4.8 11.3 0.00 0.00 0.00 71 1011.3
20260508033704 15 339 4.8 11.3 0.00 0.00 0.00 71 1011.2
20260508033604 15 337 4.8 11.3 0.00 0.00 0.00 71 1011.3
20260508033504 15 339 4.8 11.3 0.00 0.00 0.00 71 1011.4
20260508033404 15 337 4.8 11.3 0.00 0.00 0.00 71 1011.3
20260508033304 15 337 4.8 11.3 0.00 0.00 0.00 71 1011.3
20260508033204 15 337 6.4 11.3 0.00 0.00 0.00 71 1011.3
20260508033104 15 336 6.4 12.9 0.00 0.00 0.00 71 1011.2
20260508033004 15 336 6.4 12.9 0.00 0.00 0.00 71 1011.4
20260508032904 15 336 6.4 12.9 0.00 0.00 0.00 70 1011.4
20260508032804 15 334 6.4 12.9 0.00 0.00 0.00 70 1011.3
20260508032704 15 334 6.4 14.5 0.00 0.00 0.00 70 1011.3
20260508032604 15 334 6.4 14.5 0.00 0.00 0.00 70 1011.3
20260508032504 15 334 6.4 14.5 0.00 0.00 0.00 70 1011.3
20260508032405 15 334 6.4 14.5 0.00 0.00 0.00 70 1011.4
20260508032306 15 333 6.4 14.5 0.00 0.00 0.00 70 1011.2
20260508032204 15 334 6.4 14.5 0.00 0.00 0.00 70 1011.3
20260508032104 15 333 6.4 14.5 0.00 0.00 0.00 70 1011.3
20260508032004 15 333 6.4 14.5 0.00 0.00 0.00 70 1011.5
20260508031904 15 332 6.4 14.5 0.00 0.00 0.00 70 1011.2
20260508031804 15 333 6.4 14.5 0.00 0.00 0.00 70 1011.3
20260508031704 15 332 6.4 12.9 0.00 0.00 0.00 70 1011.1
20260508031606 15 333 6.4 12.9 0.00 0.00 0.00 70 1011.3
20260508031504 15 332 6.4 16.1 0.00 0.00 0.00 70 1011.4
20260508031404 15 332 6.4 16.1 0.00 0.00 0.00 70 1011.4
20260508031304 15 333 6.4 16.1 0.00 0.00 0.00 70 1011.2
20260508031204 15 332 6.4 16.1 0.00 0.00 0.00 71 1011.3
20260508031104 15 331 6.4 16.1 0.00 0.00 0.00 71 1011.3
20260508031004 15 331 6.4 16.1 0.00 0.00 0.00 71 1011.5
20260508030905 15 332 6.4 16.1 0.00 0.00 0.00 71 1011.4
20260508030805 15 332 6.4 16.1 0.00 0.00 0.00 71 1011.5
20260508030704 15 332 6.4 16.1 0.00 0.00 0.00 71 1011.1
20260508030604 15 331 6.4 16.1 0.00 0.00 0.00 70 1011.4
20260508030504 15 332 6.4 14.5 0.00 0.00 0.00 71 1011.4
20260508030404 15 332 6.4 14.5 0.00 0.00 0.00 71 1011.4
20260508030305 15 332 6.4 14.5 0.00 0.00 0.00 70 1011.4
20260508030204 15 333 6.4 11.3 0.00 0.00 0.00 71 1011.4
20260508030104 15 334 6.4 11.3 0.00 0.00 0.00 70 1011.3
20260508030005 15 334 6.4 12.9 0.00 0.00 0.00 70 1011.4
20260508025904 15 334 6.4 12.9 0.00 0.00 0.00 71 1011.3
20260508025806 15 334 6.4 12.9 0.00 0.00 0.00 71 1011.3
20260508025704 15 335 6.4 12.9 0.00 0.00 0.00 71 1011.3
20260508025604 15 336 6.4 12.9 0.00 0.00 0.00 70 1011.4
20260508025504 15 335 6.4 12.9 0.00 0.00 0.00 70 1011.5
20260508025404 15 335 6.4 12.9 0.00 0.00 0.00 70 1011.4
20260508025306 15 335 6.4 12.9 0.00 0.00 0.00 70 1011.3
20260508025204 15 335 6.4 12.9 0.00 0.00 0.00 70 1011.4
20260508025104 15 333 6.4 12.9 0.00 0.00 0.00 70 1011.4
20260508025004 15 333 6.4 12.9 0.00 0.00 0.00 70 1011.5
20260508024904 15 333 8.0 12.9 0.00 0.00 0.00 70 1011.5
20260508024804 15 331 8.0 12.9 0.00 0.00 0.00 70 1011.4
20260508024704 15 329 8.0 12.9 0.00 0.00 0.00 70 1011.4
20260508024604 15 328 8.0 12.9 0.00 0.00 0.00 70 1011.3
20260508024504 15 328 8.0 12.9 0.00 0.00 0.00 70 1011.4
20260508024404 15 329 8.0 12.9 0.00 0.00 0.00 70 1011.4
20260508024304 15 330 6.4 12.9 0.00 0.00 0.00 70 1011.4
20260508024204 15 330 6.4 12.9 0.00 0.00 0.00 70 1011.2
20260508024104 15 330 6.4 12.9 0.00 0.00 0.00 70 1011.3
20260508024027 15 331 6.4 12.9 0.00 0.00 0.00 70 1011.3
20260508023904 15 331 6.4 12.9 0.00 0.00 0.00 70 1011.2
20260508023825 15 331 6.4 14.5 0.00 0.00 0.00 70 1011.2
20260508023704 15 334 6.4 14.5 0.00 0.00 0.00 71 1011.4
20260508023605 15 335 6.4 14.5 0.00 0.00 0.00 70 1011.4
20260508023504 15 335 6.4 14.5 0.00 0.00 0.00 70 1011.4
20260508023404 15 335 6.4 14.5 0.00 0.00 0.00 70 1011.6
20260508023304 15 334 6.4 14.5 0.00 0.00 0.00 70 1011.4
20260508023204 15 332 6.4 14.5 0.00 0.00 0.00 70 1011.4
20260508023104 15 332 6.4 14.5 0.00 0.00 0.00 70 1011.4
20260508023004 15 330 6.4 14.5 0.00 0.00 0.00 70 1011.3
20260508022904 15 330 6.4 14.5 0.00 0.00 0.00 70 1011.3
20260508022804 15 330 6.4 16.1 0.00 0.00 0.00 70 1011.5
20260508022704 15 329 6.4 16.1 0.00 0.00 0.00 70 1011.2
20260508022604 15 328 8.0 16.1 0.00 0.00 0.00 70 1011.7
20260508022525 15 328 8.0 16.1 0.00 0.00 0.00 70 1011.7
20260508022404 15 328 8.0 16.1 0.00 0.00 0.00 70 1011.4
20260508022307 15 328 8.0 16.1 0.00 0.03 0.00 70 1011.4
20260508022204 15 330 8.0 16.1 0.00 0.03 0.00 70 1011.5
20260508022104 15 330 8.0 16.1 0.00 0.03 0.00 70 1011.4
20260508022026 15 331 8.0 16.1 0.00 0.03 0.00 70 1011.4
20260508021905 15 331 8.0 16.1 0.00 0.03 0.00 70 1011.4
20260508021804 15 330 8.0 14.5 0.00 0.03 0.00 70 1011.5
20260508021704 15 330 8.0 14.5 0.00 0.03 0.00 70 1011.5
20260508021604 15 330 8.0 12.9 0.00 0.03 0.00 70 1011.5
20260508021404 15 329 8.0 12.9 0.00 0.03 0.00 70 1011.4
20260508021304 15 329 8.0 14.5 0.00 0.05 0.00 70 1011.4
20260508003204 15 343 4.8 11.3 0.00 0.20 0.00 71 1012.2
20260508003104 15 344 4.8 11.3 0.00 0.23 0.00 71 1012.1
20260508003005 15 343 4.8 11.3 0.00 0.23 0.00 71 1012.1
20260508002904 15 344 4.8 11.3 0.00 0.23 0.00 71 1012.0
20260508002804 15 343 4.8 11.3 0.00 0.25 0.00 70 1012.1
20260508002703 15 342 4.8 11.3 0.00 0.25 0.00 70 1012.1
20260508002604 15 342 4.8 11.3 0.00 0.25 0.00 70 1012.1
20260508002504 15 342 4.8 11.3 0.00 0.28 0.00 70 1012.3
20260508002404 15 341 4.8 11.3 0.00 0.30 0.00 70 1012.3
20260508002307 15 339 4.8 11.3 0.00 0.30 0.00 70 1012.2
20260508002204 15 338 4.8 9.7 0.00 0.33 0.00 70 1012.3
20260508002104 15 336 4.8 11.3 0.00 0.33 0.00 70 1012.3
20260508002004 15 336 4.8 11.3 0.00 0.36 0.00 70 1012.1
20260508001904 15 335 4.8 11.3 0.00 0.36 0.00 70 1012.2
20260508001804 15 333 4.8 11.3 0.00 0.38 0.00 70 1012.1
20260508001704 15 333 4.8 11.3 0.00 0.38 0.00 70 1012.3
20260508001604 15 333 4.8 11.3 0.00 0.38 0.00 70 1012.2
20260508001504 15 334 4.8 11.3 0.00 0.38 0.00 70 1012.2
20260508001404 15 335 4.8 11.3 0.00 0.41 0.00 70 1012.4
20260508001304 15 335 4.8 12.9 0.00 0.43 0.00 69 1012.3
20260508001204 15 335 6.4 12.9 0.00 0.43 0.00 69 1012.4
20260508001104 15 337 6.4 12.9 0.00 0.43 0.00 69 1012.4
20260508001004 16 336 6.4 12.9 0.00 0.48 0.00 69 1012.2
20260508000904 16 336 6.4 12.9 0.00 0.48 0.00 69 1012.3
20260508000804 16 336 6.4 12.9 0.00 0.48 0.00 69 1012.3
20260508000704 16 335 6.4 14.5 0.00 0.51 0.00 69 1012.3
20260508000606 16 335 6.4 14.5 0.00 0.53 0.00 69 1012.2
20260508000504 16 333 6.4 14.5 0.00 0.56 0.00 69 1012.3
20260508000405 16 333 6.4 14.5 0.00 0.56 0.00 69 1012.3
20260508000305 16 333 6.4 14.5 0.00 0.56 0.00 69 1012.4
20260508000205 16 334 6.4 14.5 0.00 0.58 0.00 69 1012.4
20260508000104 16 333 6.4 14.5 0.00 0.61 0.00 69 1012.5
20260508000004 16 333 6.4 14.5 0.00 0.66 0.00 69 1012.4
20260507235904 16 332 6.4 14.5 0.00 0.66 0.00 69 1012.5
20260507235804 16 333 6.4 14.5 0.00 0.69 0.00 69 1012.3
20260507235704 16 334 6.4 12.9 0.00 0.69 0.00 69 1012.4
20260507235604 16 334 6.4 12.9 0.00 0.71 0.00 69 1012.5
20260507235504 16 334 6.4 12.9 0.00 0.71 0.00 69 1012.4
20260507235404 16 333 6.4 12.9 0.00 0.71 0.00 69 1012.5
20260507235306 16 333 6.4 12.9 0.00 0.74 0.00 69 1012.5
20260507235204 16 334 6.4 12.9 0.00 0.76 0.00 69 1012.6
20260507235104 16 332 6.4 12.9 0.00 0.76 0.00 69 1012.4
20260507235004 16 333 6.4 12.9 0.00 0.79 0.00 69 1012.6
20260507234904 16 333 6.4 12.9 0.00 0.79 0.00 69 1012.4
20260507234804 16 329 6.4 12.9 0.00 0.81 0.00 69 1012.5
20260507234704 16 328 6.4 12.9 0.00 0.84 0.00 69 1012.6
20260507234606 16 328 6.4 12.9 0.00 0.84 0.00 69 1012.6
20260507234504 16 327 6.4 12.9 0.00 0.84 0.00 69 1012.6
20260507234404 16 327 6.4 12.9 0.00 0.84 0.00 69 1012.6
20260507234304 16 326 6.4 12.9 0.00 0.84 0.00 69 1012.5
20260507234204 16 325 6.4 12.9 0.00 0.84 0.00 69 1012.6
20260507234104 16 325 6.4 12.9 0.00 0.84 0.00 69 1012.5
20260507234004 16 325 6.4 14.5 0.00 0.86 0.00 68 1012.5
20260507233904 16 324 6.4 16.1 0.00 0.86 0.00 68 1012.6
20260507233804 16 326 6.4 16.1 0.00 0.86 0.00 68 1012.6
20260507233704 16 327 6.4 16.1 0.00 0.86 0.00 68 1012.5
20260507233604 16 327 6.4 16.1 0.00 0.86 0.00 68 1012.5
20260507233504 16 329 6.4 16.1 0.00 0.89 0.00 68 1012.4
20260507233404 16 329 6.4 16.1 0.00 0.89 0.00 68 1012.5
20260507233304 16 330 6.4 16.1 0.00 0.89 0.00 68 1012.6
20260507233204 16 331 6.4 16.1 0.00 0.89 0.00 68 1012.5
20260507233104 16 332 8.0 16.1 0.00 0.91 0.00 68 1012.6
20260507233004 16 332 6.4 16.1 0.00 0.91 0.00 68 1012.8
20260507232904 16 334 6.4 14.5 0.00 0.91 0.00 68 1012.9
20260507232804 16 333 6.4 14.5 0.00 0.91 0.00 68 1012.7
20260507232704 16 333 6.4 14.5 0.00 0.91 0.00 68 1012.7
20260507232604 16 333 6.4 14.5 0.00 0.91 0.00 68 1012.7
20260507232504 16 331 6.4 14.5 0.00 0.94 0.00 68 1012.6
20260507232404 16 330 6.4 14.5 0.00 0.94 0.00 67 1012.6
20260507232306 16 330 6.4 14.5 0.00 0.94 0.00 68 1012.7
20260507232204 16 329 6.4 14.5 0.00 0.97 0.00 68 1012.5
20260507232104 16 329 6.4 14.5 0.00 0.97 0.00 67 1012.7
20260507232004 16 330 6.4 14.5 0.00 0.97 0.00 67 1012.7
20260507231904 16 329 6.4 14.5 0.00 0.97 0.00 67 1012.6
20260507231804 16 330 6.4 12.9 0.00 0.99 0.00 68 1012.5
20260507231704 16 329 6.4 12.9 0.00 0.99 0.00 68 1012.6
20260507231604 16 331 6.4 12.9 0.00 0.99 0.00 68 1012.7
20260507231504 16 329 6.4 12.9 0.00 0.99 0.00 68 1012.6
20260507231404 16 332 6.4 12.9 0.00 0.99 0.00 67 1012.8
20260507231304 16 331 6.4 12.9 0.00 0.99 0.00 68 1012.7
20260507231204 16 332 4.8 12.9 0.00 0.99 0.00 68 1012.8
20260507231104 16 330 4.8 12.9 0.00 0.99 0.00 68 1012.7
20260507231004 16 328 4.8 14.5 0.00 0.99 0.00 67 1012.8
20260507230904 16 328 4.8 14.5 0.00 0.99 0.00 67 1012.9
20260507230804 16 327 6.4 14.5 0.00 0.99 0.00 67 1012.8
20260507230704 16 326 6.4 16.1 0.00 0.99 0.00 67 1012.8
20260507230605 16 324 6.4 16.1 0.00 0.99 0.00 67 1012.7
20260507230504 16 324 6.4 16.1 0.00 0.99 0.00 67 1012.9
20260507230304 16 323 6.4 16.1 0.00 0.99 0.00 67 1012.9
20260507230204 16 322 6.4 16.1 0.00 0.99 0.00 67 1012.9
20260507230104 16 324 6.4 16.1 0.00 0.99 0.00 67 1013.0
20260507230005 16 322 6.4 16.1 0.00 0.99 0.00 67 1012.9
20260507225904 16 322 6.4 16.1 0.00 0.99 0.00 67 1012.8
20260507225704 16 323 6.4 16.1 0.00 0.99 0.00 68 1013.0
20260507225605 16 321 6.4 16.1 0.00 0.99 0.00 67 1012.9
20260507225525 16 320 6.4 16.1 0.00 0.99 0.00 68 1012.9
20260507225404 16 320 8.0 16.1 0.00 0.99 0.00 67 1013.0
20260507225306 16 318 6.4 14.5 0.00 0.99 0.00 68 1013.0
20260507225204 16 318 6.4 14.5 0.00 0.99 0.00 68 1013.1
20260507225104 16 316 6.4 14.5 0.00 0.99 0.00 67 1013.0
20260507225025 16 320 6.4 14.5 0.00 0.99 0.00 67 1013.0
20260507223104 16 327 6.4 12.9 0.00 0.99 0.00 67 1013.2
20260507223004 16 327 6.4 12.9 0.00 0.99 0.00 67 1013.3
20260507222904 16 327 6.4 12.9 0.00 0.99 0.00 67 1013.2
20260507222804 16 325 6.4 12.9 0.00 0.99 0.00 67 1013.3
20260507222704 16 324 6.4 12.9 0.00 1.02 0.00 67 1013.4
20260507222605 16 323 6.4 12.9 0.00 1.02 0.00 67 1013.3
20260507222504 16 319 6.4 12.9 0.00 1.02 0.00 67 1013.5
20260507222425 16 321 6.4 12.9 0.00 1.02 0.00 67 1013.5
20260507222306 16 320 6.4 12.9 0.00 1.02 0.00 66 1013.4
20260507222204 16 319 6.4 12.9 0.00 1.02 0.00 66 1013.6
20260507222104 16 321 6.4 12.9 0.00 1.02 0.00 66 1013.6
20260507222004 16 319 6.4 12.9 0.00 1.02 0.00 66 1013.3
20260507221904 16 319 6.4 12.9 0.00 1.02 0.00 66 1013.4
20260507221804 16 322 6.4 12.9 0.00 1.02 0.00 66 1013.4
20260507221704 16 322 6.4 12.9 0.00 1.02 0.00 66 1013.4
20260507221604 16 322 6.4 12.9 0.00 1.02 0.00 66 1013.5
20260507221504 16 324 6.4 12.9 0.00 1.02 0.00 66 1013.5
20260507221404 16 323 6.4 12.9 0.00 1.02 0.00 66 1013.4
20260507221304 16 324 6.4 12.9 0.00 1.02 0.00 66 1013.5
20260507221204 16 325 6.4 12.9 0.00 1.02 0.00 66 1013.5
20260507221104 16 323 6.4 12.9 0.00 1.02 0.00 66 1013.5
20260507221004 16 324 6.4 12.9 0.00 1.02 0.00 66 1013.6
20260507220904 16 323 6.4 12.9 0.00 1.02 0.00 66 1013.5
20260507220804 16 321 6.4 12.9 0.00 1.02 0.00 66 1013.5
20260507220704 16 321 6.4 11.3 0.00 1.02 0.00 66 1013.6
20260507220604 16 322 6.4 12.9 0.00 1.02 0.00 66 1013.5
20260507220504 16 323 6.4 12.9 0.00 1.02 0.00 66 1013.6
20260507220404 16 323 6.4 12.9 0.00 1.02 0.00 66 1013.4
20260507220304 16 323 6.4 12.9 0.00 1.02 0.00 66 1013.5
20260507220204 16 322 6.4 12.9 0.00 1.02 0.00 66 1013.5
20260507220104 16 324 6.4 12.9 0.00 1.02 0.00 66 1013.5
20260507220005 16 324 6.4 12.9 0.00 1.02 0.00 66 1013.6
20260507215904 16 326 6.4 12.9 0.00 1.02 1.02 66 1013.6
20260507215804 16 328 6.4 12.9 0.00 1.02 1.02 66 1013.6
20260507215704 17 328 6.4 12.9 0.00 1.02 1.02 66 1013.4
20260507215604 16 328 6.4 11.3 0.00 1.04 1.02 66 1013.4
20260507215504 16 327 6.4 11.3 0.00 1.04 1.02 66 1013.3
20260507215403 17 328 6.4 11.3 0.00 1.04 1.02 66 1013.5
20260507215306 17 327 6.4 11.3 0.00 1.04 1.02 66 1013.6
20260507215204 17 326 6.4 11.3 0.00 1.04 1.02 66 1013.6
20260507215104 16 328 6.4 11.3 0.00 1.04 1.02 66 1013.5
20260507215004 17 329 6.4 11.3 0.00 1.04 1.02 66 1013.6
20260507214904 17 327 4.8 11.3 0.00 1.04 1.02 66 1013.5
20260507214804 17 322 6.4 11.3 0.00 1.04 1.02 66 1013.5
20260507214704 17 320 6.4 12.9 0.00 1.04 1.02 66 1013.4
20260507214604 17 317 6.4 12.9 0.00 1.04 1.02 65 1013.7
20260507214504 16 317 6.4 12.9 0.00 1.04 1.02 66 1013.6
20260507214404 16 313 6.4 12.9 0.00 1.04 1.02 66 1013.6
20260507214304 16 311 6.4 12.9 0.00 1.07 1.02 66 1013.6
20260507214204 16 309 6.4 12.9 0.00 1.07 1.02 66 1013.6
20260507214104 16 308 6.4 12.9 0.00 1.07 1.02 66 1013.6
20260507214004 16 306 6.4 12.9 0.00 1.07 1.02 66 1013.7
20260507213904 16 305 6.4 12.9 0.00 1.07 1.02 65 1013.6
20260507213804 16 308 6.4 12.9 0.00 1.07 1.02 66 1013.8
20260507213704 16 307 6.4 12.9 0.00 1.09 1.02 66 1013.7
20260507213604 16 309 6.4 12.9 0.00 1.09 1.02 66 1014.0
20260507213504 16 308 6.4 12.9 0.00 1.09 1.02 66 1013.7
20260507213404 16 309 6.4 12.9 0.00 1.09 1.02 66 1013.7
20260507213305 16 309 6.4 12.9 0.00 1.09 1.02 66 1013.7
20260507213204 16 310 6.4 12.9 0.00 1.09 1.02 66 1013.8
20260507213105 16 310 6.4 12.9 0.00 1.09 1.02 66 1013.7
20260507213005 16 310 4.8 12.9 0.00 1.09 1.02 66 1013.7
20260507212905 16 309 4.8 12.9 0.00 1.09 1.02 66 1013.8
20260507212805 16 306 4.8 12.9 0.00 1.09 1.02 66 1013.8
20260507212705 16 306 4.8 12.9 0.00 1.09 1.02 66 1013.6
20260507212604 16 306 4.8 12.9 0.00 1.09 1.02 66 1013.8
20260507212504 16 308 4.8 12.9 0.00 1.09 1.02 66 1013.8
20260507212404 16 311 4.8 12.9 0.00 1.09 1.02 66 1013.5
20260507212307 16 312 4.8 14.5 0.00 1.09 1.02 66 1013.6
20260507212204 16 315 4.8 14.5 0.00 1.09 1.02 66 1013.6
20260507212104 16 315 4.8 14.5 0.00 1.09 1.02 66 1013.5
20260507212004 16 317 4.8 14.5 0.00 1.09 1.02 66 1013.6
20260507211904 16 322 6.4 14.5 0.00 1.09 1.02 65 1013.8
20260507211804 16 323 6.4 14.5 0.00 1.09 1.02 65 1013.6
20260507211704 16 326 6.4 14.5 0.00 1.09 1.02 65 1013.6
20260507211604 16 327 6.4 14.5 0.00 1.09 1.02 65 1013.6
20260507211504 16 327 6.4 14.5 0.00 1.09 1.02 65 1013.5
20260507211404 16 326 6.4 14.5 0.00 1.09 1.02 65 1013.7
20260507211305 16 330 6.4 11.3 0.00 1.09 1.02 65 1013.7
20260507211203 16 328 6.4 11.3 0.00 1.09 1.02 65 1013.7
20260507211103 16 330 6.4 11.3 0.00 1.12 1.02 65 1013.6
20260507211004 16 329 6.4 11.3 0.00 1.12 1.02 65 1013.6
20260507210904 16 326 6.4 11.3 0.00 1.12 1.02 65 1013.7
20260507210826 16 329 6.4 11.3 0.00 1.12 1.02 65 1013.7
20260507210703 16 329 6.4 11.3 0.00 1.12 1.02 65 1013.5
20260507210603 16 328 6.4 12.9 0.00 1.12 1.02 64 1013.7
20260507210504 16 325 6.4 12.9 0.00 1.14 1.02 64 1013.7
20260507210403 16 327 6.4 12.9 0.00 1.14 1.02 64 1013.7
20260507210304 16 326 6.4 12.9 0.00 1.14 1.02 64 1013.7
20260507210204 16 327 6.4 12.9 0.00 1.14 1.02 64 1013.8
20260507210104 16 326 6.4 12.9 0.00 1.14 1.02 64 1013.7
20260507210004 16 328 6.4 12.9 0.00 1.17 1.02 64 1013.7
20260507205904 16 329 6.4 12.9 0.00 1.17 1.02 64 1013.8
20260507205804 16 329 6.4 12.9 0.00 1.17 1.02 64 1013.7
20260507205704 16 326 4.8 12.9 0.00 1.17 1.02 64 1013.6
20260507205604 16 326 4.8 12.9 0.00 1.19 1.02 64 1013.7
20260507205504 16 330 4.8 12.9 0.00 1.19 1.02 65 1013.8
20260507205404 16 331 4.8 12.9 0.00 1.19 1.02 65 1013.8
20260507205306 16 331 4.8 12.9 0.00 1.19 1.02 65 1013.7
20260507205204 16 331 4.8 9.7 0.00 1.22 1.02 65 1013.8
20260507205104 16 330 4.8 9.7 0.00 1.22 1.02 64 1013.7
20260507205004 16 329 4.8 9.7 0.00 1.22 1.02 65 1013.6
20260507204904 16 331 4.8 9.7 0.00 1.22 1.02 65 1013.8
20260507204804 16 330 4.8 9.7 0.00 1.22 1.02 65 1013.7
20260507204704 16 330 4.8 9.7 0.00 1.22 1.02 64 1013.6
20260507204604 16 332 4.8 9.7 0.00 1.22 1.02 64 1013.8
20260507204504 17 330 4.8 9.7 0.00 1.22 1.02 65 1013.7
20260507204404 17 331 4.8 9.7 0.00 1.22 1.02 64 1013.6
20260507204305 17 330 4.8 9.7 0.00 1.22 1.02 64 1013.8
20260507204204 17 327 4.8 9.7 0.00 1.22 1.02 64 1013.7
20260507204104 17 328 4.8 9.7 0.00 1.24 1.02 64 1013.7
20260507204004 17 329 4.8 9.7 0.00 1.24 1.02 64 1013.7
20260507203904 17 327 4.8 9.7 0.00 1.24 1.02 64 1013.7
20260507203804 17 328 4.8 11.3 0.00 1.24 1.02 64 1013.6
20260507203704 17 328 4.8 11.3 0.00 1.24 1.02 64 1013.5
20260507203604 17 326 4.8 12.9 0.00 1.24 1.02 65 1013.6
20260507203504 17 326 4.8 12.9 0.00 1.27 1.02 65 1013.7
20260507203403 17 323 4.8 12.9 0.00 1.27 1.02 64 1013.8
20260507203304 17 322 4.8 12.9 0.00 1.27 1.02 64 1013.6
20260507203205 17 323 4.8 12.9 0.00 1.27 1.02 64 1013.6
20260507203104 17 321 4.8 12.9 0.00 1.27 1.02 64 1013.9
20260507203004 17 320 4.8 12.9 0.00 1.27 1.02 64 1013.7
20260507202903 17 319 4.8 12.9 0.00 1.27 1.02 64 1013.7
20260507202804 17 317 4.8 12.9 0.00 1.27 1.02 64 1013.6
20260507202703 17 319 4.8 12.9 0.00 1.27 1.02 65 1013.6
20260507202603 17 318 4.8 12.9 0.00 1.27 1.02 65 1013.7
20260507202503 17 319 4.8 9.7 0.00 1.27 1.02 65 1013.7
20260507202404 17 319 4.8 9.7 0.00 1.27 1.02 65 1013.7
20260507202306 17 321 4.8 9.7 0.00 1.27 1.02 65 1013.6
20260507202204 17 320 4.8 9.7 0.00 1.27 1.02 65 1013.8
20260507202104 17 321 4.8 9.7 0.00 1.27 1.02 65 1013.7
20260507202004 17 321 4.8 9.7 0.00 1.27 1.02 65 1013.7
20260507201904 17 320 4.8 11.3 0.00 1.27 1.02 65 1013.6
20260507201804 17 320 4.8 11.3 0.00 1.27 1.02 65 1013.6
20260507201705 17 316 4.8 11.3 0.00 1.27 1.02 65 1013.6
20260507201605 17 315 6.4 11.3 0.00 1.27 1.02 66 1013.8
20260507201504 17 312 4.8 11.3 0.00 1.27 1.02 66 1013.7
20260507201404 17 311 4.8 11.3 0.00 1.27 1.02 66 1013.7
20260507201305 17 308 4.8 11.3 0.00 1.27 1.02 66 1013.7
20260507201204 16 305 4.8 11.3 0.00 1.27 1.02 68 1013.8
20260507201104 16 304 4.8 11.3 0.00 1.27 1.02 67 1013.7
20260507201004 16 301 6.4 12.9 0.00 1.27 1.02 69 1013.6
20260507200904 16 300 6.4 12.9 0.00 1.27 1.02 70 1013.7
20260507200804 16 300 6.4 12.9 0.00 1.27 1.02 70 1013.9
20260507200703 16 300 6.4 12.9 0.00 1.27 1.02 70 1013.5
20260507200603 16 299 6.4 12.9 0.00 1.27 1.02 71 1013.7
20260507200504 16 300 6.4 14.5 0.00 1.27 1.02 70 1013.7
20260507200403 16 298 6.4 14.5 0.00 1.27 1.02 71 1013.7
20260507200304 16 298 6.4 14.5 0.00 1.27 1.02 71 1013.6
20260507200204 16 298 6.4 14.5 0.00 1.27 1.02 71 1013.7
20260507200104 16 296 6.4 14.5 0.00 1.27 1.02 71 1013.7
20260507200004 16 297 6.4 14.5 0.00 1.27 1.02 72 1013.9
20260507195903 16 297 6.4 14.5 0.00 1.27 1.02 72 1013.6
20260507195804 16 295 6.4 14.5 0.00 1.27 1.02 72 1013.7
20260507195704 16 296 6.4 14.5 0.00 1.27 1.02 72 1013.8
20260507195604 16 296 6.4 14.5 0.00 1.27 1.02 73 1013.7
20260507195504 16 295 6.4 12.9 0.00 1.27 1.02 73 1013.8
20260507195403 16 294 6.4 12.9 0.00 1.27 1.02 73 1013.8
20260507195305 16 295 6.4 11.3 0.00 1.27 1.02 73 1013.8
20260507195203 16 293 6.4 11.3 0.00 1.27 1.02 73 1013.8
20260507195103 16 294 6.4 11.3 0.00 1.27 1.02 73 1013.6
20260507195004 16 292 6.4 11.3 0.00 1.27 1.02 73 1013.6
20260507194904 16 293 6.4 16.1 0.00 1.27 1.02 73 1013.6
20260507194804 17 293 6.4 16.1 0.00 1.27 1.02 73 1013.8
20260507194703 17 292 6.4 16.1 0.00 1.27 1.02 73 1013.7
20260507194604 17 292 6.4 16.1 0.00 1.27 1.02 73 1013.7
20260507194504 17 293 6.4 16.1 0.00 1.27 1.02 73 1013.7
20260507194404 17 292 6.4 16.1 0.00 1.27 1.02 73 1013.7
20260507194304 17 292 6.4 16.1 0.00 1.27 1.02 72 1013.6
20260507194204 17 292 6.4 16.1 0.00 1.27 1.02 72 1013.6
20260507194106 17 292 6.4 16.1 0.00 1.27 1.02 72 1013.8
20260507194004 17 294 6.4 16.1 0.00 1.27 1.02 72 1013.5
20260507193904 17 292 6.4 14.5 0.00 1.27 1.02 72 1013.6
20260507193804 17 292 6.4 14.5 0.00 1.27 1.02 72 1013.6
20260507193705 17 292 6.4 14.5 0.00 1.27 1.02 72 1013.7
20260507193604 17 290 8.0 17.7 0.00 1.27 1.02 72 1013.5
20260507193504 17 290 6.4 17.7 0.00 1.27 1.02 72 1013.7
20260507193404 17 291 8.0 17.7 0.00 1.27 1.02 72 1013.8
20260507193304 17 291 6.4 17.7 0.00 1.27 1.02 72 1013.8
20260507193204 17 292 6.4 17.7 0.00 1.27 1.02 72 1013.6
20260507193104 17 292 6.4 19.3 0.00 1.27 1.02 72 1013.5
20260507193004 17 290 8.0 19.3 0.00 1.27 1.02 72 1013.7
20260507192904 17 292 6.4 19.3 0.00 1.27 1.02 72 1013.5
20260507192704 17 291 6.4 19.3 0.00 1.27 1.02 71 1013.6
20260507192604 17 295 6.4 19.3 0.00 1.27 1.02 71 1013.6
20260507192505 17 294 6.4 19.3 0.00 1.27 1.02 71 1013.5
20260507192404 17 293 6.4 19.3 0.00 1.27 1.02 71 1013.6
20260507192306 17 292 6.4 19.3 0.00 1.27 1.02 71 1013.6
20260507192204 17 289 6.4 19.3 0.00 1.27 1.02 71 1013.5
20260507192125 17 290 6.4 19.3 0.00 1.27 1.02 71 1013.5
20260507182005 18 315 3.2 9.7 0.00 1.32 1.02 65 1013.4
20260507181904 18 319 3.2 9.7 0.00 1.32 1.02 66 1013.6
20260507181804 18 324 3.2 6.4 0.00 1.32 1.02 66 1013.6
20260507181704 18 328 3.2 6.4 0.00 1.32 1.02 66 1013.6
20260507181625 18 330 3.2 6.4 0.00 1.32 1.02 65 1013.6
20260507181304 19 335 3.2 6.4 0.00 1.32 1.02 65 1013.4
20260507181204 19 336 3.2 6.4 0.00 1.32 1.02 65 1013.6
20260507181104 19 336 3.2 6.4 0.00 1.32 1.02 66 1013.6
20260507181004 19 336 3.2 6.4 0.00 1.32 1.02 66 1013.6
20260507180805 19 340 3.2 6.4 0.00 1.35 1.02 65 1013.5
20260507180725 19 339 3.2 6.4 0.00 1.35 1.02 65 1013.5
20260507180625 19 339 3.2 6.4 0.00 1.35 1.02 65 1013.6
20260507180525 19 338 3.2 6.4 0.00 1.35 1.02 65 1013.7
20260507180425 19 340 3.2 6.4 0.00 1.35 1.02 65 1013.5
20260507180305 19 338 3.2 6.4 0.00 1.35 1.02 65 1013.7
20260507180204 19 341 3.2 6.4 0.00 1.35 1.02 65 1013.6
20260507180104 19 344 1.6 4.8 0.00 1.35 1.02 65 1013.7
20260507175904 19 348 1.6 4.8 0.00 1.35 1.02 65 1013.6
20260507175805 19 349 1.6 4.8 0.00 1.35 1.02 65 1013.7
20260507175704 19 353 1.6 4.8 0.00 1.37 1.02 64 1013.7
20260507175625 19 352 1.6 4.8 0.00 1.37 1.02 64 1013.7
20260507175504 19 353 1.6 4.8 0.00 1.37 1.02 64 1013.4
20260507175404 20 355 1.6 4.8 0.00 1.37 1.02 64 1013.6
20260507175306 20 356 1.6 4.8 0.00 1.40 1.02 63 1013.5
20260507175204 20 352 1.6 4.8 0.00 1.40 1.02 64 1013.7
20260507175104 20 351 1.6 4.8 0.00 1.40 1.02 64 1013.7
20260507175004 20 350 1.6 4.8 0.00 1.40 1.02 63 1013.8
20260507174904 20 348 3.2 4.8 0.00 1.40 1.02 63 1013.7
20260507174804 20 346 3.2 4.8 0.00 1.42 1.02 63 1013.6
20260507174726 20 346 1.6 4.8 0.00 1.42 1.02 62 1013.6
20260507174625 20 345 1.6 4.8 0.00 1.42 1.02 62 1013.6
20260507174504 20 345 1.6 4.8 0.00 1.42 1.02 62 1013.6
20260507174404 20 346 3.2 4.8 0.00 1.42 1.02 62 1013.5
20260507174304 20 349 1.6 4.8 0.00 1.45 1.02 62 1013.5
20260507174204 20 350 1.6 4.8 0.00 1.45 1.02 62 1013.4
20260507174125 20 350 1.6 4.8 0.00 1.45 1.02 62 1013.4
20260507174004 20 353 1.6 4.8 0.00 1.45 1.02 62 1013.4
20260507173905 20 355 1.6 4.8 0.00 1.45 1.02 62 1013.5
20260507173705 20 356 1.6 4.8 0.00 1.45 1.02 62 1013.5
20260507173604 20 358 1.6 4.8 0.00 1.45 1.02 62 1013.4
20260507173525 20 358 1.6 4.8 0.00 1.45 1.02 62 1013.4
20260507173404 20 355 1.6 4.8 0.00 1.45 1.02 62 1013.5
20260507173304 20 354 1.6 4.8 0.00 1.45 1.02 62 1013.8
20260507173204 20 355 1.6 4.8 0.00 1.45 1.02 62 1013.6
20260507173104 20 354 1.6 4.8 0.00 1.45 1.02 61 1013.6
20260507173004 20 350 3.2 6.4 0.00 1.45 1.02 61 1013.5
20260507172904 20 349 3.2 6.4 0.00 1.45 1.02 61 1013.7
20260507172804 20 351 3.2 6.4 0.00 1.45 1.02 61 1013.7
20260507172724 20 350 3.2 6.4 0.00 1.45 1.02 60 1013.7
20260507172604 20 350 3.2 6.4 0.00 1.45 1.02 60 1013.5
20260507172504 20 349 3.2 6.4 0.00 1.45 1.02 60 1013.6
20260507172403 20 349 3.2 6.4 0.00 1.45 1.02 59 1013.6
20260507172325 21 349 3.2 6.4 0.00 1.45 1.02 60 1013.6
20260507172205 21 356 3.2 6.4 0.00 1.45 1.02 60 1013.5
20260507172104 21 360 3.2 6.4 0.00 1.45 1.02 59 1013.7
20260507172026 21 4 3.2 6.4 0.00 1.45 1.02 59 1013.7
20260507171906 21 7 3.2 6.4 0.00 1.45 1.02 59 1013.5
20260507171825 21 9 3.2 6.4 0.00 1.45 1.02 59 1013.5
20260507171704 21 12 3.2 6.4 0.00 1.45 1.02 59 1013.5
20260507171604 21 5 3.2 6.4 0.00 1.45 1.02 59 1013.6
20260507171504 21 5 3.2 6.4 0.00 1.45 1.02 58 1013.5
20260507171404 21 7 3.2 6.4 0.00 1.45 1.02 58 1013.4
20260507171304 21 2 3.2 8.0 0.00 1.45 1.02 57 1013.6
20260507171204 21 355 3.2 8.0 0.00 1.45 1.02 57 1013.5
20260507171104 21 353 3.2 8.0 0.00 1.45 1.02 57 1013.5
20260507171004 21 352 3.2 8.0 0.00 1.45 1.02 57 1013.5
20260507170924 21 351 3.2 8.0 0.00 1.45 1.02 57 1013.5
20260507170803 21 350 3.2 9.7 0.00 1.45 1.02 57 1013.5
20260507170704 21 352 3.2 9.7 0.00 1.45 1.02 57 1013.5
20260507170604 21 360 3.2 9.7 0.00 1.45 1.02 56 1013.4
20260507170504 21 360 3.2 9.7 0.00 1.45 1.02 56 1013.6
20260507170404 21 360 3.2 9.7 0.00 1.45 1.02 56 1013.2
20260507170304 21 4 3.2 9.7 0.00 1.45 1.02 56 1013.4
20260507170204 21 7 3.2 9.7 0.00 1.45 1.02 56 1013.6
20260507170104 21 8 3.2 9.7 0.00 1.45 1.02 56 1013.3
20260507170005 21 5 3.2 9.7 0.00 1.45 1.02 56 1013.3
20260507165904 21 3 3.2 9.7 0.00 1.45 1.02 56 1013.5
20260507165804 21 5 3.2 9.7 0.00 1.45 1.02 56 1013.4
20260507165705 21 6 3.2 9.7 0.00 1.45 1.02 56 1013.4
20260507165504 21 357 3.2 9.7 0.00 1.45 1.02 55 1013.3
20260507165404 21 1 3.2 9.7 0.00 1.45 1.02 55 1013.4
20260507165306 21 356 3.2 8.0 0.00 1.45 1.02 56 1013.4
20260507165204 21 352 3.2 8.0 0.00 1.45 1.02 55 1013.4
20260507165104 21 350 3.2 8.0 0.00 1.45 1.02 55 1013.4
20260507165004 21 350 3.2 9.7 0.00 1.45 1.02 55 1013.4
20260507164904 22 350 3.2 9.7 0.00 1.45 1.02 55 1013.3
20260507164804 22 350 3.2 9.7 0.00 1.45 1.02 54 1013.4
20260507164705 22 350 3.2 9.7 0.00 1.45 1.02 54 1013.3
20260507164625 22 352 3.2 9.7 0.00 1.45 1.02 54 1013.3
20260507164504 22 358 3.2 9.7 0.00 1.45 1.02 54 1013.5
20260507164404 22 357 3.2 9.7 0.00 1.45 1.02 54 1013.4
20260507164304 22 357 3.2 9.7 0.00 1.45 1.02 54 1013.4
20260507164204 22 5 3.2 9.7 0.00 1.45 1.02 54 1013.4
20260507164126 22 10 3.2 9.7 0.00 1.45 1.02 53 1013.4
20260507164004 22 14 3.2 6.4 0.00 1.45 1.02 53 1013.5
20260507163925 22 11 3.2 6.4 0.00 1.45 1.02 54 1013.5
20260507163804 22 15 3.2 8.0 0.00 1.45 1.02 53 1013.3
20260507163704 22 11 3.2 8.0 0.00 1.45 1.02 53 1013.5
20260507163604 22 7 3.2 8.0 0.00 1.45 1.02 53 1013.2
20260507163504 22 358 3.2 9.7 0.00 1.45 1.02 53 1013.4
20260507163404 22 354 3.2 9.7 0.00 1.45 1.02 53 1013.5
20260507163304 22 353 4.8 9.7 0.00 1.45 1.02 53 1013.4
20260507163204 22 351 4.8 9.7 0.00 1.45 1.02 54 1013.4
20260507163105 22 346 4.8 11.3 0.00 1.45 1.02 54 1013.5
20260507163004 22 347 4.8 11.3 0.00 1.45 1.02 54 1013.6
20260507162905 22 350 4.8 11.3 0.00 1.45 1.02 53 1013.3
20260507162805 22 350 4.8 11.3 0.00 1.45 1.02 53 1013.5
20260507162705 22 350 4.8 11.3 0.00 1.45 1.02 53 1013.4
20260507162604 22 349 4.8 11.3 0.00 1.45 1.02 53 1013.4
20260507162504 22 353 4.8 11.3 0.00 1.45 1.02 52 1013.7
20260507162425 22 355 4.8 11.3 0.00 1.45 1.02 52 1013.7
20260507162307 22 353 4.8 11.3 0.00 1.45 1.02 52 1013.5
20260507162225 22 354 4.8 11.3 0.00 1.45 1.02 52 1013.5
20260507162104 22 356 3.2 9.7 0.00 1.45 1.02 52 1013.4
20260507162004 22 353 3.2 9.7 0.00 1.45 1.02 52 1013.5
20260507161905 22 350 3.2 9.7 0.00 1.45 1.02 51 1013.4
20260507161804 22 351 3.2 9.7 0.00 1.45 1.02 51 1013.5
20260507161703 22 354 3.2 9.7 0.00 1.45 1.02 51 1013.3
20260507161603 22 359 3.2 9.7 0.00 1.45 1.02 52 1013.4
20260507161525 22 359 3.2 9.7 0.00 1.45 1.02 52 1013.4
20260507161404 22 357 3.2 9.7 0.00 1.45 1.02 51 1013.5
20260507161304 22 359 3.2 9.7 0.00 1.45 1.02 52 1013.4
20260507161204 22 3 3.2 9.7 0.00 1.45 1.02 52 1013.3
20260507161124 22 5 3.2 9.7 0.00 1.45 1.02 51 1013.3
20260507161004 22 19 3.2 9.7 0.00 1.45 1.02 52 1013.3
20260507160904 22 30 3.2 9.7 0.00 1.45 1.02 52 1013.1
20260507160803 22 36 3.2 9.7 0.00 1.45 1.02 51 1013.4
20260507160703 22 39 4.8 12.9 0.00 1.45 1.02 51 1013.2
20260507160603 22 36 4.8 12.9 0.00 1.45 1.02 51 1013.3
20260507160503 22 37 4.8 12.9 0.00 1.45 1.02 51 1013.2
20260507160405 22 43 4.8 12.9 0.00 1.45 1.02 50 1013.4
20260507160304 23 42 4.8 12.9 0.00 1.45 1.02 50 1013.3
20260507160203 23 44 4.8 12.9 0.00 1.45 1.02 49 1013.5
20260507160105 23 49 4.8 12.9 0.00 1.45 1.02 49 1013.4
20260507160004 23 47 4.8 12.9 0.00 1.45 1.02 49 1013.4
20260507155903 23 43 4.8 12.9 0.00 1.45 1.02 48 1013.2
20260507155824 23 41 4.8 12.9 0.00 1.45 1.02 50 1013.2
20260507155725 23 39 3.2 11.3 0.00 1.45 1.02 49 1013.3
20260507155625 23 39 3.2 11.3 0.00 1.45 1.02 50 1013.2
20260507155504 23 37 3.2 11.3 0.00 1.45 1.02 50 1013.3
20260507155404 23 31 3.2 11.3 0.00 1.45 1.02 49 1013.1
20260507155324 23 29 3.2 8.0 0.00 1.45 1.02 49 1013.1
20260507155204 23 19 3.2 8.0 0.00 1.45 1.02 50 1013.2
20260507155104 23 11 3.2 8.0 0.00 1.45 1.02 50 1013.2
20260507155003 23 9 3.2 8.0 0.00 1.45 1.02 50 1013.3
20260507154904 23 356 3.2 8.0 0.00 1.45 1.02 50 1013.1
20260507154804 23 348 3.2 6.4 0.00 1.45 1.02 50 1013.2
20260507154704 23 336 3.2 11.3 0.00 1.45 1.02 50 1013.2
20260507154604 23 329 3.2 14.5 0.00 1.45 1.02 51 1013.1
20260507154504 23 326 4.8 14.5 0.00 1.45 1.02 51 1013.2
20260507154425 23 326 4.8 14.5 0.00 1.45 1.02 50 1013.2
20260507154303 22 329 4.8 14.5 0.00 1.45 1.02 49 1013.3
20260507154204 23 330 4.8 14.5 0.00 1.45 1.02 49 1013.2
20260507154125 23 332 4.8 14.5 0.00 1.45 1.02 49 1013.2
20260507154007 22 331 4.8 14.5 0.00 1.45 1.02 49 1013.2
20260507153903 22 336 4.8 14.5 0.00 1.45 1.02 49 1013.3
20260507153805 22 345 4.8 14.5 0.00 1.45 1.02 49 1013.3
20260507153704 22 352 4.8 14.5 0.00 1.45 1.02 49 1013.4
20260507153604 22 5 3.2 14.5 0.00 1.45 1.02 49 1013.4
20260507153504 22 24 3.2 9.7 0.00 1.45 1.02 50 1013.3
20260507153404 22 33 3.2 8.0 0.00 1.45 1.02 49 1013.4
20260507153304 23 36 3.2 8.0 0.00 1.45 1.02 50 1013.5
20260507153226 23 38 3.2 8.0 0.00 1.45 1.02 50 1013.5
20260507153104 23 33 3.2 8.0 0.00 1.45 1.02 50 1013.5
20260507153004 23 42 3.2 17.7 0.00 1.45 1.02 49 1013.4
20260507152904 23 39 4.8 17.7 0.00 1.45 1.02 49 1013.5
20260507152804 23 32 4.8 17.7 0.00 1.45 1.02 50 1013.4
20260507152725 23 31 4.8 17.7 0.00 1.45 1.02 50 1013.4
20260507152625 23 38 4.8 17.7 0.00 1.45 1.02 49 1013.3
20260507152504 23 25 4.8 17.7 0.00 1.45 1.02 48 1013.4
20260507152404 23 17 4.8 17.7 0.00 1.45 1.02 48 1013.4
20260507152306 23 12 4.8 17.7 0.00 1.45 1.02 48 1013.5
20260507152204 23 9 6.4 17.7 0.00 1.45 1.02 49 1013.5
20260507152104 23 7 6.4 17.7 0.00 1.45 1.02 49 1013.6
20260507151904 23 345 4.8 14.5 0.00 1.45 1.02 49 1013.6
20260507151804 23 343 4.8 14.5 0.00 1.45 1.02 49 1013.5
20260507151704 23 340 4.8 14.5 0.00 1.45 1.02 48 1013.5
20260507151604 23 336 4.8 14.5 0.00 1.45 1.02 48 1013.5
20260507151504 23 330 4.8 14.5 0.00 1.45 1.02 48 1013.5
20260507151404 23 326 4.8 14.5 0.00 1.45 1.02 48 1013.5
20260507151304 23 315 4.8 14.5 0.00 1.45 1.02 49 1013.5
20260507151225 23 307 4.8 11.3 0.00 1.45 1.02 50 1013.5
20260507151104 23 307 4.8 11.3 0.00 1.45 1.02 49 1013.4
20260507151004 23 308 4.8 12.9 0.00 1.45 1.02 48 1013.5
20260507150905 23 313 4.8 16.1 0.00 1.45 1.02 48 1013.6
20260507150804 23 313 4.8 16.1 0.00 1.45 1.02 48 1013.4
20260507150704 23 308 4.8 16.1 0.00 1.45 1.02 48 1013.4
20260507150604 23 305 4.8 16.1 0.00 1.45 1.02 48 1013.6
20260507150525 23 302 4.8 16.1 0.00 1.45 1.02 48 1013.6
20260507150404 23 298 4.8 16.1 0.00 1.45 1.02 47 1013.5
20260507150305 23 305 4.8 16.1 0.00 1.45 1.02 48 1013.6
20260507150204 24 310 4.8 16.1 0.00 1.45 1.02 47 1013.5
20260507150104 24 313 3.2 16.1 0.00 1.45 1.02 47 1013.7
20260507150005 24 321 3.2 16.1 0.00 1.45 1.02 47 1013.7
20260507145904 24 309 3.2 6.4 0.00 1.45 1.02 48 1013.5
20260507145804 24 318 3.2 6.4 0.00 1.45 1.02 49 1013.5
20260507145725 24 336 3.2 6.4 0.00 1.45 1.02 49 1013.5
20260507145625 24 7 1.6 6.4 0.00 1.45 1.02 49 1013.4
20260507145504 24 11 1.6 4.8 0.00 1.45 1.02 49 1013.6
20260507145404 23 1 1.6 4.8 0.00 1.45 1.02 49 1013.4
20260507145306 23 350 1.6 6.4 0.00 1.45 1.02 49 1013.6
20260507145204 23 347 1.6 6.4 0.00 1.45 1.02 48 1013.7
20260507145104 23 336 3.2 8.0 0.00 1.45 1.02 50 1013.8
20260507144904 23 323 3.2 8.0 0.00 1.45 1.02 49 1013.7
20260507144804 23 323 3.2 8.0 0.00 1.45 1.02 50 1013.8
20260507144704 23 320 3.2 8.0 0.00 1.45 1.02 49 1013.7
20260507144605 23 316 3.2 8.0 0.00 1.45 1.02 48 1013.5
20260507144504 23 321 3.2 9.7 0.00 1.45 1.02 48 1013.7
20260507144404 23 321 4.8 9.7 0.00 1.45 1.02 49 1013.9
20260507144304 23 321 4.8 9.7 0.00 1.45 1.02 49 1013.7
20260507144225 23 320 4.8 11.3 0.00 1.45 1.02 48 1013.7
20260507144105 23 325 4.8 11.3 0.00 1.45 1.02 47 1013.7
20260507144004 23 328 4.8 11.3 0.00 1.45 1.02 46 1013.9
20260507143903 23 331 4.8 11.3 0.00 1.45 1.02 49 1013.7
20260507143804 23 328 4.8 11.3 0.00 1.45 1.02 48 1013.6
20260507143725 23 327 4.8 11.3 0.00 1.45 1.02 47 1013.6
20260507143604 23 327 4.8 11.3 0.00 1.45 1.02 47 1013.9
20260507143504 23 325 4.8 11.3 0.00 1.45 1.02 47 1013.8
20260507143405 23 327 4.8 11.3 0.00 1.45 1.02 47 1013.8
20260507143304 23 328 4.8 11.3 0.00 1.45 1.02 47 1013.6
20260507143204 23 330 4.8 11.3 0.00 1.45 1.02 47 1013.6
20260507143105 23 333 4.8 11.3 0.00 1.45 1.02 47 1013.8
20260507143004 23 337 4.8 11.3 0.00 1.45 1.02 45 1013.9
20260507142904 23 341 4.8 11.3 0.00 1.45 1.02 45 1013.8
20260507142805 23 344 4.8 11.3 0.00 1.45 1.02 46 1013.8
20260507142704 23 346 4.8 11.3 0.00 1.45 1.02 46 1013.8
20260507142604 23 348 4.8 11.3 0.00 1.45 1.02 46 1013.8
20260507142525 23 347 4.8 11.3 0.00 1.45 1.02 46 1013.8
20260507142404 23 349 4.8 11.3 0.00 1.45 1.02 46 1013.8
20260507142306 23 355 3.2 8.0 0.00 1.45 1.02 46 1013.8
20260507142204 23 355 3.2 8.0 0.00 1.45 1.02 47 1013.7
20260507142125 23 351 4.8 8.0 0.00 1.45 1.02 47 1013.7
20260507142003 23 350 3.2 8.0 0.00 1.45 1.02 47 1013.9
20260507141903 23 348 3.2 8.0 0.00 1.45 1.02 46 1013.8
20260507141803 23 352 3.2 8.0 0.00 1.45 1.02 46 1014.0
20260507141703 23 355 3.2 8.0 0.00 1.45 1.02 46 1013.8
20260507141604 23 352 3.2 8.0 0.00 1.45 1.02 46 1013.8
20260507141504 23 351 3.2 8.0 0.00 1.45 1.02 46 1013.7
20260507141404 23 345 3.2 8.0 0.00 1.45 1.02 46 1013.9
20260507141325 23 336 3.2 8.0 0.00 1.45 1.02 46 1013.9
20260507141225 23 325 3.2 11.3 0.00 1.45 1.02 46 1013.9
20260507141104 23 321 4.8 11.3 0.00 1.45 1.02 48 1013.9
20260507141004 23 320 4.8 12.9 0.00 1.45 1.02 48 1013.9
20260507140904 23 318 4.8 12.9 0.00 1.45 1.02 47 1014.1
20260507140803 23 320 4.8 12.9 0.00 1.45 1.02 46 1014.0
20260507140703 23 317 4.8 12.9 0.00 1.45 1.02 45 1014.1
20260507140603 23 322 4.8 12.9 0.00 1.45 1.02 45 1014.0
20260507140504 23 324 4.8 12.9 0.00 1.45 1.02 46 1014.2
20260507140406 23 327 4.8 12.9 0.00 1.45 1.02 45 1014.2
20260507140304 23 333 4.8 12.9 0.00 1.45 1.02 45 1014.0
20260507140204 23 332 4.8 12.9 0.00 1.45 1.02 45 1014.3
20260507140104 23 335 3.2 12.9 0.00 1.45 1.02 45 1014.3
20260507140004 23 342 3.2 9.7 0.00 1.45 1.02 47 1014.2
20260507135904 23 354 3.2 9.7 0.00 1.45 1.02 47 1014.4
20260507135804 23 360 3.2 9.7 0.00 1.45 1.02 47 1014.0
20260507135704 23 2 3.2 8.0 0.00 1.45 1.02 47 1014.3
20260507135604 23 353 3.2 6.4 0.00 1.45 1.02 46 1014.5
20260507135504 23 9 3.2 6.4 0.00 1.45 1.02 48 1014.3
20260507135404 23 23 3.2 6.4 0.00 1.45 1.02 48 1014.4
20260507135306 23 24 3.2 6.4 0.00 1.45 1.02 46 1014.4
20260507135204 23 31 3.2 6.4 0.00 1.45 1.02 47 1014.5
20260507135103 23 24 3.2 6.4 0.00 1.45 1.02 47 1014.4
20260507135004 23 26 3.2 6.4 0.00 1.45 1.02 46 1014.4
20260507134904 23 9 3.2 6.4 0.00 1.45 1.02 46 1014.4
20260507134826 23 2 3.2 6.4 0.00 1.45 1.02 46 1014.4
20260507134704 23 11 3.2 6.4 0.00 1.45 1.02 44 1014.4
20260507134604 23 4 3.2 6.4 0.00 1.45 1.02 46 1014.6
20260507134504 23 1 3.2 6.4 0.00 1.45 1.02 46 1014.5
20260507134404 23 348 3.2 6.4 0.00 1.45 1.02 46 1014.6
20260507134325 23 337 3.2 6.4 0.00 1.45 1.02 44 1014.6
20260507134204 23 328 3.2 9.7 0.00 1.45 1.02 48 1014.8
20260507134104 23 317 3.2 9.7 0.00 1.45 1.02 47 1014.4
20260507134004 23 305 3.2 9.7 0.00 1.45 1.02 47 1014.5
20260507133904 23 305 3.2 11.3 0.00 1.45 1.02 48 1014.5
20260507133804 23 303 4.8 11.3 0.00 1.45 1.02 48 1014.5
20260507133704 23 306 4.8 11.3 0.00 1.45 1.02 45 1014.7
20260507133604 23 305 4.8 11.3 0.00 1.45 1.02 47 1014.7
20260507133504 23 303 4.8 11.3 0.00 1.45 1.02 45 1014.7
20260507133404 23 306 4.8 11.3 0.00 1.45 1.02 48 1014.7
20260507133304 23 312 4.8 11.3 0.00 1.45 1.02 47 1014.6
20260507133204 23 315 4.8 11.3 0.00 1.45 1.02 48 1014.8
20260507133106 23 318 4.8 11.3 0.00 1.45 1.02 47 1014.7
20260507133005 23 328 4.8 11.3 0.00 1.45 1.02 45 1014.6
20260507132904 23 332 4.8 11.3 0.00 1.45 1.02 47 1014.6
20260507132825 23 336 4.8 11.3 0.00 1.45 1.02 47 1014.6
20260507132704 23 338 3.2 11.3 0.00 1.45 1.02 48 1014.6
20260507132625 23 341 4.8 11.3 0.00 1.45 1.02 48 1014.6
20260507132525 23 344 3.2 11.3 0.00 1.45 1.02 48 1014.8
20260507132404 23 349 3.2 9.7 0.00 1.45 1.02 47 1014.9
20260507132307 23 358 3.2 11.3 0.00 1.45 1.02 47 1014.8
20260507132204 23 7 3.2 11.3 0.00 1.45 1.02 48 1015.0
20260507132104 23 15 3.2 11.3 0.00 1.45 1.02 48 1014.9
20260507132005 23 16 3.2 11.3 0.00 1.45 1.02 48 1015.0
20260507131906 23 22 3.2 11.3 0.00 1.45 1.02 49 1015.0
20260507131804 23 26 3.2 11.3 0.00 1.45 1.02 49 1015.0
20260507131704 23 23 3.2 11.3 0.00 1.45 1.02 48 1014.8
20260507131626 23 19 3.2 11.3 0.00 1.45 1.02 48 1014.8
20260507131504 23 16 3.2 11.3 0.00 1.45 1.02 48 1014.9
20260507131404 23 23 3.2 11.3 0.00 1.45 1.02 49 1014.9
20260507131303 23 23 3.2 9.7 0.00 1.45 1.02 48 1015.1
20260507131205 23 22 3.2 9.7 0.00 1.45 1.02 47 1015.0
20260507131103 23 25 3.2 9.7 0.00 1.45 1.02 49 1015.0
20260507131004 23 24 3.2 9.7 0.00 1.45 1.02 49 1015.0
20260507130904 23 21 3.2 9.7 0.00 1.45 1.02 48 1014.9
20260507130803 23 17 3.2 9.7 0.00 1.45 1.02 50 1015.0
20260507130705 23 20 3.2 9.7 0.00 1.45 1.02 49 1015.0
20260507130604 23 15 3.2 9.7 0.00 1.45 1.02 49 1014.9
20260507130525 23 16 3.2 9.7 0.00 1.45 1.02 49 1014.9
20260507130405 23 359 4.8 11.3 0.00 1.45 1.02 50 1014.8
20260507130304 23 357 4.8 11.3 0.00 1.45 1.02 50 1014.9
20260507130204 23 351 4.8 11.3 0.00 1.45 1.02 49 1014.9
20260507130104 23 344 4.8 11.3 0.00 1.45 1.02 49 1014.7
20260507130004 23 349 4.8 11.3 0.00 1.45 1.02 50 1015.1
20260507125904 23 343 4.8 11.3 0.00 1.45 1.02 50 1014.9
20260507125804 23 334 4.8 11.3 0.00 1.45 1.02 50 1015.2
20260507125704 23 320 3.2 11.3 0.00 1.45 1.02 50 1015.1
20260507125604 23 307 3.2 11.3 0.00 1.45 1.02 49 1015.0
20260507125504 23 295 3.2 11.3 0.00 1.45 1.02 50 1015.0
20260507125404 23 286 3.2 9.7 0.00 1.45 1.02 50 1015.2
20260507125307 23 280 3.2 9.7 0.00 1.45 1.02 50 1015.1
20260507125204 23 272 3.2 8.0 0.00 1.45 1.02 51 1015.1
20260507125125 23 275 3.2 8.0 0.00 1.45 1.02 52 1015.1
20260507125025 22 273 3.2 8.0 0.00 1.45 1.02 53 1015.1
20260507124925 22 271 3.2 8.0 0.00 1.45 1.02 52 1015.0
20260507124804 22 281 3.2 9.7 0.00 1.45 1.02 51 1015.2
20260507124704 22 260 3.2 9.7 0.00 1.45 1.02 50 1015.1
20260507124604 23 126 3.2 9.7 0.00 1.45 1.02 51 1015.0
20260507124525 23 112 4.8 9.7 0.00 1.45 1.02 51 1015.0
20260507124427 23 94 3.2 9.7 0.00 1.45 1.02 52 1015.2
20260507124325 23 96 3.2 9.7 0.00 1.45 1.02 52 1015.2
20260507124205 23 97 4.8 9.7 0.00 1.45 1.02 52 1015.1
20260507124104 23 93 4.8 9.7 0.00 1.45 1.02 56 1015.2
20260507124004 23 91 4.8 9.7 0.00 1.45 1.02 55 1015.2
20260507123925 23 86 4.8 9.7 0.00 1.45 1.02 56 1015.2
20260507123825 23 84 4.8 9.7 0.00 1.45 1.02 54 1015.1
20260507123703 23 81 3.2 9.7 0.00 1.45 1.02 55 1015.2
20260507123604 23 75 3.2 9.7 0.00 1.45 1.02 58 1015.2
20260507123504 22 68 3.2 9.7 0.00 1.45 1.02 57 1015.4
20260507123404 22 66 3.2 9.7 0.00 1.45 1.02 58 1015.0
20260507123304 22 64 3.2 9.7 0.00 1.45 1.02 58 1015.4
20260507123203 22 59 3.2 9.7 0.00 1.45 1.02 58 1015.3
20260507123125 22 56 3.2 8.0 0.00 1.45 1.02 58 1015.3
20260507123026 22 52 3.2 8.0 0.00 1.45 1.02 58 1015.4
20260507122903 22 51 3.2 8.0 0.00 1.45 1.02 59 1015.3
20260507122804 22 52 3.2 8.0 0.00 1.45 1.02 59 1015.4
20260507122705 22 42 3.2 8.0 0.00 1.45 1.02 59 1015.4
20260507122624 22 39 3.2 8.0 0.00 1.45 1.02 58 1015.4
20260507122504 22 33 3.2 11.3 0.00 1.45 1.02 61 1015.2
20260507122404 22 29 3.2 11.3 0.00 1.45 1.02 60 1015.2
20260507122325 22 28 4.8 11.3 0.00 1.45 1.02 60 1015.2
20260507122204 22 22 3.2 11.3 0.00 1.45 1.02 61 1015.1
20260507122104 22 19 3.2 11.3 0.00 1.45 1.02 61 1015.2
20260507122004 22 11 3.2 11.3 0.00 1.45 1.02 60 1015.3
20260507121904 21 10 3.2 11.3 0.00 1.45 1.02 62 1015.2
20260507121825 21 5 3.2 11.3 0.00 1.45 1.02 61 1015.2
20260507121704 21 1 3.2 11.3 0.00 1.45 1.02 62 1015.3
20260507121603 21 358 3.2 11.3 0.00 1.45 1.02 62 1015.3
20260507121504 21 360 3.2 11.3 0.00 1.45 1.02 62 1015.4
20260507121404 21 4 3.2 8.0 0.00 1.45 1.02 63 1015.3
20260507121304 21 4 3.2 8.0 0.00 1.45 1.02 63 1015.4
20260507121205 21 360 3.2 8.0 0.00 1.45 1.02 62 1015.1
20260507121104 21 360 3.2 8.0 0.00 1.45 1.02 62 1015.4
20260507121004 21 5 3.2 8.0 0.00 1.45 1.02 61 1015.5
20260507120903 21 11 3.2 8.0 0.00 1.45 1.02 61 1015.4
20260507120804 21 16 3.2 8.0 0.00 1.45 1.02 60 1015.3
20260507120726 21 19 3.2 8.0 0.00 1.45 1.02 61 1015.3
20260507120604 21 24 3.2 8.0 0.00 1.45 1.02 62 1015.3
20260507120504 21 21 3.2 6.4 0.00 1.45 1.02 63 1015.2
20260507120403 21 19 3.2 9.7 0.00 1.45 1.02 62 1015.3
20260507120303 21 22 3.2 9.7 0.00 1.45 1.02 62 1015.3
20260507120203 21 29 3.2 9.7 0.00 1.45 1.02 62 1015.5
20260507120125 21 33 3.2 9.7 0.00 1.45 1.02 62 1015.5
20260507120024 21 35 3.2 9.7 0.00 1.45 1.02 60 1015.1
20260507115904 21 39 3.2 9.7 0.00 1.45 1.02 61 1015.3
20260507115804 21 41 3.2 9.7 0.00 1.45 1.02 61 1015.3
20260507115703 21 42 3.2 9.7 0.00 1.45 1.02 61 1015.3
20260507115604 21 49 3.2 9.7 0.00 1.45 1.02 61 1015.3
20260507115504 21 56 3.2 9.7 0.00 1.45 1.02 62 1015.3
20260507115404 21 61 3.2 9.7 0.00 1.45 1.02 62 1015.4
20260507115326 21 64 3.2 9.7 0.00 1.45 1.02 62 1015.4
20260507115204 21 77 3.2 9.7 0.00 1.45 1.02 62 1015.5
20260507115103 21 77 3.2 9.7 0.00 1.45 1.02 61 1015.3
20260507115025 21 79 3.2 8.0 0.00 1.45 1.02 61 1015.3
20260507114905 21 81 3.2 8.0 0.00 1.45 1.02 63 1015.4
20260507114805 21 80 3.2 8.0 0.00 1.45 1.02 62 1015.4
20260507114704 21 82 3.2 8.0 0.00 1.45 1.02 62 1015.4
20260507114604 21 78 3.2 8.0 0.00 1.45 1.02 62 1015.4
20260507114504 21 81 3.2 8.0 0.00 1.45 1.02 63 1015.4
20260507114425 21 87 3.2 8.0 0.00 1.45 1.02 64 1015.4
20260507114304 21 88 3.2 8.0 0.00 1.45 1.02 64 1015.6
20260507114204 21 91 3.2 6.4 0.00 1.45 1.02 64 1015.4
20260507114104 21 101 3.2 6.4 0.00 1.45 1.02 64 1015.5
20260507114005 21 103 3.2 6.4 0.00 1.45 1.02 63 1015.5
20260507113905 21 96 3.2 6.4 0.00 1.45 1.02 62 1015.5
20260507113825 21 96 3.2 6.4 0.00 1.45 1.02 62 1015.5
20260507113704 21 85 3.2 8.0 0.00 1.45 1.02 61 1015.2
20260507113604 21 84 3.2 8.0 0.00 1.45 1.02 62 1015.5
20260507113504 21 79 3.2 8.0 0.00 1.45 1.02 63 1015.5
20260507113404 21 72 3.2 8.0 0.00 1.45 1.02 63 1015.4
20260507113304 21 68 3.2 8.0 0.00 1.45 1.02 62 1015.5
20260507113204 21 62 3.2 8.0 0.00 1.45 1.02 63 1015.4
20260507113104 21 61 3.2 8.0 0.00 1.45 1.02 63 1015.6
20260507113004 21 62 3.2 8.0 0.00 1.45 1.02 63 1015.6
20260507112904 21 61 3.2 8.0 0.00 1.45 1.02 64 1015.6
20260507112804 21 53 3.2 8.0 0.00 1.45 1.02 65 1015.4
20260507112725 21 48 3.2 8.0 0.00 1.45 1.02 65 1015.4
20260507112604 21 36 3.2 8.0 0.00 1.45 1.02 66 1015.7
20260507112505 21 36 3.2 8.0 0.00 1.45 1.02 66 1015.7
20260507112425 21 36 3.2 8.0 0.00 1.45 1.02 65 1015.7
20260507112306 21 35 3.2 8.0 0.00 1.45 1.02 66 1015.7
20260507112204 21 31 3.2 8.0 0.00 1.45 1.02 66 1015.5
20260507112104 21 32 3.2 8.0 0.00 1.45 1.02 65 1015.5
20260507112004 21 23 3.2 8.0 0.00 1.45 1.02 67 1015.7
20260507111905 21 26 3.2 8.0 0.00 1.45 1.02 66 1015.5
20260507111804 21 34 3.2 8.0 0.00 1.45 1.02 66 1015.5
20260507111704 21 50 3.2 8.0 0.00 1.45 1.02 66 1015.7
20260507111604 21 59 3.2 8.0 0.00 1.45 1.02 66 1015.5
20260507111504 21 57 3.2 8.0 0.00 1.45 1.02 66 1015.6
20260507111403 21 50 3.2 8.0 0.00 1.45 1.02 66 1015.5
20260507111304 21 47 3.2 8.0 0.00 1.45 1.02 66 1015.7
20260507111224 21 53 3.2 8.0 0.00 1.45 1.02 67 1015.7
20260507111126 21 56 3.2 8.0 0.00 1.45 1.02 66 1015.4
20260507111005 21 56 3.2 8.0 0.00 1.45 1.02 66 1015.6
20260507110903 21 56 3.2 8.0 0.00 1.45 1.02 66 1015.6
20260507110805 21 58 3.2 8.0 0.00 1.45 1.02 67 1015.7
20260507110725 21 49 3.2 8.0 0.00 1.45 1.02 66 1015.7
20260507110603 21 40 3.2 8.0 0.00 1.45 1.02 67 1015.5
20260507110503 21 47 3.2 6.4 0.00 1.45 1.02 68 1015.5
20260507110404 21 52 3.2 8.0 0.00 1.45 1.02 69 1015.6
20260507110304 21 59 3.2 8.0 0.00 1.45 1.02 69 1015.5
20260507110226 21 60 3.2 8.0 0.00 1.45 1.02 69 1015.5
20260507110104 20 58 3.2 8.0 0.00 1.45 1.02 69 1015.6
20260507110026 20 60 3.2 8.0 0.00 1.45 1.02 68 1015.6
20260507105904 20 65 3.2 8.0 0.00 1.45 1.02 68 1015.6
20260507105804 20 62 3.2 8.0 0.00 1.45 1.02 68 1015.5
20260507105704 20 70 3.2 8.0 0.00 1.45 1.02 69 1015.5
20260507105604 20 71 3.2 8.0 0.00 1.45 1.02 69 1015.6
20260507105504 20 67 3.2 8.0 0.00 1.45 1.02 69 1015.6
20260507105404 20 73 3.2 8.0 0.00 1.45 1.02 69 1015.6
20260507105306 20 69 3.2 8.0 0.00 1.45 1.02 67 1015.6
20260507105204 20 61 3.2 8.0 0.00 1.45 1.02 67 1015.5
20260507105104 20 70 3.2 8.0 0.00 1.45 1.02 67 1015.5
20260507105025 20 67 3.2 8.0 0.00 1.45 1.02 69 1015.5
20260507104904 20 53 3.2 8.0 0.00 1.45 1.02 69 1015.5
20260507104804 20 44 3.2 8.0 0.00 1.45 1.02 70 1015.5
20260507104704 20 26 3.2 8.0 0.00 1.45 1.02 71 1015.6
20260507104605 20 7 3.2 8.0 0.00 1.45 1.02 70 1015.6
20260507104504 20 351 3.2 8.0 0.00 1.45 1.02 70 1015.5
20260507104404 20 337 3.2 8.0 0.00 1.45 1.02 69 1015.6
20260507104325 20 330 3.2 8.0 0.00 1.45 1.02 69 1015.6
20260507104204 20 323 3.2 8.0 0.00 1.45 1.02 68 1015.6
20260507104104 20 325 3.2 8.0 0.00 1.45 1.02 68 1015.5
20260507104025 20 327 3.2 8.0 0.00 1.45 1.02 68 1015.5
20260507103903 20 327 3.2 9.7 0.00 1.45 1.02 69 1015.7
20260507103804 20 325 4.8 11.3 0.00 1.45 1.02 69 1015.7
20260507103704 20 325 4.8 11.3 0.00 1.45 1.02 68 1015.5
20260507103604 20 327 4.8 11.3 0.00 1.45 1.02 68 1015.7
20260507103504 20 329 4.8 11.3 0.00 1.45 1.02 67 1015.6
20260507103403 20 330 4.8 11.3 0.00 1.45 1.02 67 1015.7
20260507103326 20 334 4.8 11.3 0.00 1.45 1.02 67 1015.7
20260507103205 20 335 4.8 11.3 0.00 1.45 1.02 65 1015.7
20260507103104 20 335 6.4 11.3 0.00 1.45 1.02 65 1015.7
20260507103026 20 334 6.4 11.3 0.00 1.45 1.02 65 1015.7
20260507102903 20 337 4.8 11.3 0.00 1.45 1.02 65 1015.7
20260507102804 20 339 4.8 11.3 0.00 1.45 1.02 65 1015.8
20260507102725 20 343 4.8 11.3 0.00 1.45 1.02 67 1015.8
20260507102603 20 350 3.2 11.3 0.00 1.45 1.02 67 1015.9
20260507102504 20 357 3.2 11.3 0.00 1.45 1.02 67 1015.9
20260507102404 20 10 3.2 11.3 0.00 1.45 1.02 66 1015.9
20260507102306 20 7 3.2 11.3 0.00 1.45 1.02 69 1015.8
20260507102204 20 24 3.2 11.3 0.00 1.45 1.02 68 1015.8
20260507102104 20 45 3.2 9.7 0.00 1.45 1.02 67 1015.8
20260507102006 20 50 3.2 9.7 0.00 1.45 1.02 69 1015.9
20260507101904 20 58 3.2 9.7 0.00 1.45 1.02 69 1015.8
20260507101804 19 60 3.2 9.7 0.00 1.45 1.02 69 1015.9
20260507101725 20 59 3.2 9.7 0.00 1.45 1.02 69 1015.9
20260507101605 19 49 3.2 9.7 0.00 1.45 1.02 68 1016.0
20260507101504 19 39 3.2 9.7 0.00 1.45 1.02 70 1016.1
20260507101425 19 30 3.2 9.7 0.00 1.45 1.02 71 1016.1
20260507101325 19 28 3.2 9.7 0.00 1.45 1.02 69 1016.0
20260507101204 19 20 4.8 9.7 0.00 1.45 1.02 72 1016.0
20260507101104 19 10 3.2 9.7 0.00 1.45 1.02 72 1015.7
20260507101025 19 5 3.2 9.7 0.00 1.45 1.02 72 1015.7
20260507100904 19 351 3.2 6.4 0.00 1.45 1.02 71 1015.9
20260507100804 19 344 3.2 6.4 0.00 1.45 1.02 71 1016.0
20260507100704 18 340 3.2 6.4 0.00 1.45 1.02 71 1015.9
20260507100625 18 344 3.2 6.4 0.00 1.45 1.02 72 1015.9
20260507100504 18 351 3.2 8.0 0.00 1.45 1.02 71 1016.0
20260507100404 18 351 3.2 9.7 0.00 1.45 1.02 70 1016.1
20260507100304 18 347 3.2 9.7 0.00 1.45 1.02 71 1016.1
20260507100224 18 351 3.2 9.7 0.00 1.45 1.02 71 1016.1
20260507100103 18 358 3.2 9.7 0.00 1.45 1.02 71 1016.0
20260507100004 18 3 3.2 9.7 0.00 1.45 1.02 71 1016.1
20260507095904 18 13 3.2 9.7 0.00 1.45 1.02 72 1016.2
20260507095804 18 24 3.2 9.7 0.00 1.45 1.02 72 1016.1
20260507095704 18 32 3.2 9.7 0.00 1.45 1.02 72 1016.1
20260507095604 18 36 3.2 9.7 0.00 1.45 1.02 72 1016.0
20260507095504 18 28 3.2 9.7 0.00 1.45 1.02 72 1016.2
20260507095405 18 29 3.2 8.0 0.00 1.45 1.02 72 1015.9
20260507095305 18 26 3.2 8.0 0.00 1.45 1.02 73 1016.1
20260507095205 18 13 3.2 8.0 0.00 1.45 1.02 73 1016.2
20260507095103 18 359 3.2 9.7 0.00 1.45 1.02 72 1016.1
20260507095004 18 350 4.8 9.7 0.00 1.45 1.02 72 1016.2
20260507094904 18 342 4.8 9.7 0.00 1.45 1.02 71 1016.1
20260507094803 18 337 4.8 9.7 0.00 1.45 1.02 71 1016.0
20260507094703 18 342 4.8 9.7 0.00 1.45 1.02 72 1016.2
20260507094604 18 339 4.8 9.7 0.00 1.45 1.02 72 1016.2
20260507094504 18 341 3.2 9.7 0.00 1.45 1.02 71 1016.2
20260507094404 18 343 3.2 9.7 0.00 1.45 1.02 73 1016.1
20260507094304 18 342 3.2 9.7 0.00 1.45 1.02 71 1016.3
20260507094225 18 341 3.2 9.7 0.00 1.45 1.02 73 1016.3
20260507094104 18 345 3.2 9.7 0.00 1.45 1.02 74 1016.2
20260507094004 18 345 3.2 6.4 0.00 1.45 1.02 73 1016.2
20260507093904 18 352 3.2 6.4 0.00 1.45 1.02 73 1016.3
20260507093803 18 355 3.2 6.4 0.00 1.45 1.02 73 1016.3
20260507093725 18 351 3.2 8.0 0.00 1.45 1.02 73 1016.3
20260507093605 18 352 3.2 8.0 0.00 1.45 1.02 72 1016.4
20260507093525 18 353 3.2 9.7 0.00 1.45 1.02 73 1016.4
20260507093404 18 352 3.2 9.7 0.00 1.45 1.02 72 1016.1
20260507093304 18 357 4.8 9.7 0.00 1.45 1.02 71 1016.3
20260507093203 18 3 4.8 9.7 0.00 1.45 1.02 70 1016.0
20260507093103 18 360 4.8 9.7 0.00 1.45 1.02 72 1016.2
20260507093003 18 1 4.8 9.7 0.00 1.45 1.02 71 1016.2
20260507092904 18 4 4.8 9.7 0.00 1.45 1.02 72 1016.1
20260507092804 18 5 4.8 9.7 0.00 1.45 1.02 72 1016.1
20260507092725 18 5 4.8 9.7 0.00 1.45 1.02 72 1016.1
20260507092604 18 12 3.2 9.7 0.00 1.45 1.02 72 1015.9
20260507092504 18 19 3.2 9.7 0.00 1.45 1.02 71 1016.1
20260507092404 18 24 3.2 9.7 0.00 1.45 1.02 71 1016.3
20260507092306 18 23 3.2 8.0 0.00 1.45 1.02 74 1015.9
20260507092204 18 19 3.2 8.0 0.00 1.45 1.02 73 1015.9
20260507092126 18 29 3.2 8.0 0.00 1.45 1.02 74 1015.9
20260507092004 18 52 3.2 11.3 0.00 1.45 1.02 75 1016.3
20260507091903 18 59 3.2 11.3 0.00 1.45 1.02 75 1015.9
20260507091803 18 75 3.2 11.3 0.00 1.45 1.02 74 1016.1
20260507091705 18 82 3.2 11.3 0.00 1.45 1.02 73 1016.3
20260507091604 18 83 3.2 11.3 0.00 1.45 1.02 74 1016.2
20260507091503 18 89 3.2 11.3 0.00 1.45 1.02 74 1016.1
20260507091404 18 88 3.2 11.3 0.00 1.45 1.02 74 1016.0
20260507091303 18 88 4.8 11.3 0.00 1.45 1.02 74 1016.0
20260507091204 18 86 4.8 11.3 0.00 1.45 1.02 75 1016.0
20260507091125 18 85 4.8 11.3 0.00 1.45 1.02 76 1016.0
20260507091004 18 77 3.2 11.3 0.00 1.45 1.02 77 1016.1
20260507090924 18 72 3.2 9.7 0.00 1.45 1.02 77 1016.1
20260507090803 18 66 3.2 9.7 0.00 1.45 1.02 77 1016.2
20260507090703 18 59 3.2 9.7 0.00 1.45 1.02 77 1016.1
20260507090624 18 53 3.2 9.7 0.00 1.45 1.02 77 1016.1
20260507090503 18 40 3.2 9.7 0.00 1.45 1.02 77 1016.2
20260507090406 18 30 3.2 8.0 0.00 1.45 1.02 76 1016.2
20260507090303 18 21 3.2 8.0 0.00 1.45 1.02 76 1016.1
20260507090204 18 24 3.2 9.7 0.00 1.45 1.02 76 1016.3
20260507090103 17 29 3.2 9.7 0.00 1.45 1.02 77 1016.2
20260507090005 17 33 3.2 9.7 0.00 1.45 1.02 76 1016.0
20260507085924 17 36 3.2 9.7 0.00 1.45 1.02 77 1016.0
20260507085804 18 33 3.2 9.7 0.00 1.45 1.02 76 1016.0
20260507085704 18 35 3.2 9.7 0.00 1.45 1.02 75 1016.2
20260507085604 18 41 3.2 9.7 0.00 1.45 1.02 76 1016.2
20260507085504 18 47 3.2 9.7 0.00 1.45 1.02 76 1016.1
20260507085403 18 48 3.2 9.7 0.00 1.45 1.02 78 1016.1
20260507085306 18 49 3.2 9.7 0.00 1.45 1.02 77 1016.0
20260507085204 18 43 3.2 8.0 0.00 1.45 1.02 77 1016.1
20260507085104 18 34 3.2 8.0 0.00 1.45 1.02 77 1015.9
20260507085004 18 23 3.2 8.0 0.00 1.45 1.02 77 1016.2
20260507084904 18 19 3.2 8.0 0.00 1.45 1.02 78 1016.0
20260507084824 18 12 3.2 8.0 0.00 1.45 1.02 78 1016.0
20260507084704 18 19 3.2 8.0 0.00 1.45 1.02 79 1016.0
20260507084603 18 21 3.2 8.0 0.00 1.45 1.02 78 1016.2
20260507084505 18 19 3.2 8.0 0.00 1.45 1.02 79 1016.3
20260507084403 18 12 3.2 9.7 0.00 1.45 1.02 79 1016.2
20260507084304 17 11 3.2 9.7 0.00 1.45 1.02 80 1016.2
20260507084203 17 16 3.2 9.7 0.00 1.45 1.02 78 1016.1
20260507084124 17 17 3.2 9.7 0.00 1.45 1.02 78 1016.1
20260507084024 17 25 3.2 9.7 0.00 1.45 1.02 80 1016.1
20260507083924 17 30 3.2 9.7 0.00 1.45 1.02 80 1016.1
20260507083824 17 33 3.2 9.7 0.00 1.45 1.02 80 1016.3
20260507083724 17 29 3.2 9.7 0.00 1.45 1.02 80 1016.0
20260507083625 17 25 3.2 9.7 0.00 1.45 1.02 80 1016.1
20260507083503 17 25 3.2 9.7 0.00 1.45 1.02 79 1016.2
20260507083404 17 34 3.2 9.7 0.00 1.45 1.02 80 1016.1
20260507083304 17 36 3.2 9.7 0.00 1.45 1.02 80 1016.1
20260507083203 17 31 3.2 9.7 0.00 1.45 1.02 81 1016.0
20260507083105 17 26 3.2 9.7 0.00 1.45 1.02 81 1016.1
20260507083004 17 17 3.2 8.0 0.00 1.45 1.02 80 1016.2
20260507082904 17 9 3.2 8.0 0.00 1.45 1.02 80 1016.4
20260507082804 17 3 3.2 8.0 0.00 1.45 1.02 81 1016.2
20260507082704 17 1 3.2 8.0 0.00 1.45 1.02 81 1016.4
20260507082603 17 358 3.2 8.0 0.00 1.45 1.02 80 1016.3
20260507082503 17 360 3.2 8.0 0.00 1.45 1.02 79 1016.3
20260507082405 17 1 3.2 8.0 0.00 1.45 1.02 80 1016.3
20260507082306 17 358 3.2 6.4 0.00 1.45 1.02 79 1016.4
20260507082204 17 357 3.2 6.4 0.00 1.45 1.02 80 1016.3
20260507082125 17 2 1.6 6.4 0.00 1.45 1.02 80 1016.3
20260507082004 17 18 1.6 6.4 0.00 1.45 1.02 81 1016.4
20260507081904 17 32 1.6 6.4 0.00 1.45 1.02 81 1016.3
20260507081804 17 45 1.6 6.4 0.00 1.45 1.02 81 1016.4
20260507081703 17 52 1.6 6.4 0.00 1.45 1.02 82 1016.5
20260507081604 17 52 1.6 6.4 0.00 1.45 1.02 83 1016.4
20260507081503 16 60 1.6 6.4 0.00 1.45 1.02 83 1016.4
20260507081405 16 68 1.6 6.4 0.00 1.45 1.02 84 1016.7
20260507081303 16 80 1.6 6.4 0.00 1.45 1.02 84 1016.4
20260507081204 16 79 1.6 6.4 0.00 1.45 1.02 83 1016.5
20260507081125 16 82 1.6 6.4 0.00 1.45 1.02 83 1016.5
20260507081003 16 83 1.6 6.4 0.00 1.45 1.02 83 1016.4
20260507080903 16 80 1.6 6.4 0.00 1.45 1.02 83 1016.5
20260507080804 16 74 1.6 6.4 0.00 1.45 1.02 83 1016.4
20260507080704 16 65 3.2 6.4 0.00 1.45 1.02 82 1016.4
20260507080625 16 61 3.2 6.4 0.00 1.45 1.02 82 1016.4
20260507080503 16 45 3.2 6.4 0.00 1.45 1.02 83 1016.5
20260507080403 16 34 3.2 6.4 0.00 1.45 1.02 82 1016.4
20260507080304 16 23 3.2 6.4 0.00 1.45 1.02 82 1016.4
20260507080224 16 13 3.2 6.4 0.00 1.45 1.02 82 1016.4
20260507080104 16 359 3.2 6.4 0.00 1.45 1.02 81 1016.4
20260507080004 16 353 3.2 6.4 0.00 1.45 1.02 83 1016.3
20260507075904 16 350 3.2 6.4 0.00 1.45 1.02 83 1016.5
20260507075804 16 354 3.2 6.4 0.00 1.45 1.02 82 1016.4
20260507075703 16 3 3.2 9.7 0.00 1.45 1.02 82 1016.5
20260507075605 16 13 3.2 9.7 0.00 1.45 1.02 82 1016.4
20260507075503 16 22 3.2 9.7 0.00 1.45 1.02 82 1016.4
20260507075404 16 28 3.2 9.7 0.00 1.45 1.02 81 1016.3
20260507075306 16 29 3.2 9.7 0.00 1.45 1.02 81 1016.5
20260507075204 17 32 3.2 9.7 0.00 1.45 1.02 81 1016.3
20260507075104 17 33 3.2 9.7 0.00 1.45 1.02 80 1016.2
20260507075005 17 35 3.2 9.7 0.00 1.45 1.02 82 1016.2
20260507074903 17 38 3.2 9.7 0.00 1.45 1.02 82 1016.5
20260507074803 17 39 3.2 9.7 0.00 1.45 1.02 83 1016.5
20260507074724 17 38 3.2 9.7 0.00 1.45 1.02 83 1016.5
20260507074604 17 33 1.6 8.0 0.00 1.45 1.02 83 1016.3
20260507074505 17 36 1.6 8.0 0.00 1.45 1.02 83 1016.1
20260507074404 17 45 3.2 6.4 0.00 1.45 1.02 82 1016.3
20260507074303 17 48 3.2 6.4 0.00 1.45 1.02 82 1016.3
20260507074203 17 57 3.2 6.4 0.00 1.45 1.02 82 1016.4
20260507074103 17 63 3.2 6.4 0.00 1.45 1.02 83 1016.3
20260507074004 17 65 3.2 6.4 0.00 1.45 1.02 82 1016.3
20260507073903 17 64 3.2 6.4 0.00 1.45 1.02 84 1016.5
20260507073804 17 63 3.2 6.4 0.00 1.45 1.02 85 1016.3
20260507073704 16 62 3.2 6.4 0.00 1.45 1.02 85 1016.3
20260507073604 16 63 3.2 6.4 0.00 1.45 1.02 84 1016.5
20260507073503 16 59 3.2 6.4 0.00 1.45 1.02 84 1016.3
20260507073403 16 55 3.2 6.4 0.00 1.45 1.02 84 1016.3
20260507073303 16 55 3.2 8.0 0.00 1.45 1.02 85 1016.5
20260507073204 16 55 3.2 8.0 0.00 1.45 1.02 85 1016.2
20260507073103 16 52 3.2 8.0 0.00 1.45 1.02 85 1016.2
20260507073026 16 50 3.2 8.0 0.00 1.45 1.02 85 1016.2
20260507072925 16 52 3.2 8.0 0.00 1.45 1.02 85 1016.3
20260507072804 16 57 3.2 8.0 0.00 1.45 1.02 85 1016.3
20260507072724 16 59 3.2 8.0 0.00 1.45 1.02 85 1016.3
20260507072603 16 55 3.2 8.0 0.00 1.45 1.02 85 1016.3
20260507072504 16 55 3.2 8.0 0.00 1.45 1.02 86 1016.1
20260507072403 16 55 3.2 8.0 0.00 1.45 1.02 86 1016.2
20260507072306 16 58 3.2 8.0 0.00 1.45 1.02 86 1016.2
20260507072204 16 55 3.2 8.0 0.00 1.45 1.02 86 1016.3
20260507072104 16 54 3.2 8.0 0.00 1.45 1.02 87 1016.3
20260507072024 16 53 3.2 8.0 0.00 1.45 1.02 86 1016.3
20260507071903 16 54 3.2 8.0 0.00 1.45 1.02 87 1016.4
20260507071804 16 50 3.2 8.0 0.00 1.45 1.02 87 1016.4
20260507071703 16 50 3.2 8.0 0.00 1.45 1.02 87 1016.3
20260507071625 16 50 3.2 8.0 0.00 1.45 1.02 87 1016.3
20260507071505 16 42 3.2 8.0 0.00 1.45 1.02 87 1016.6
20260507071424 16 35 3.2 8.0 0.00 1.45 1.02 87 1016.6
20260507071303 16 25 3.2 8.0 0.00 1.45 1.02 88 1016.6
20260507071224 16 26 3.2 8.0 0.00 1.45 1.02 88 1016.6
20260507071105 15 24 3.2 8.0 0.00 1.45 1.02 88 1016.4
20260507071003 15 20 3.2 8.0 0.00 1.45 1.02 88 1016.5
20260507070926 15 17 3.2 8.0 0.00 1.45 1.02 87 1016.5
20260507070804 15 14 3.2 8.0 0.00 1.45 1.02 87 1016.5
20260507070703 15 11 3.2 6.4 0.00 1.45 1.02 87 1016.5
20260507070625 15 14 3.2 6.4 0.00 1.45 1.02 87 1016.5
20260507070504 15 27 3.2 8.0 0.00 1.45 1.02 87 1016.5
20260507070403 15 33 3.2 8.0 0.00 1.45 1.02 88 1016.5
20260507070304 15 36 3.2 8.0 0.00 1.45 1.02 88 1016.4
20260507070204 15 35 3.2 8.0 0.00 1.45 1.02 87 1016.4
20260507070104 15 32 3.2 8.0 0.00 1.45 1.02 87 1016.5
20260507070008 15 32 3.2 8.0 0.00 1.45 1.02 90 1016.4
20260507065904 15 31 3.2 8.0 0.00 1.45 1.02 90 1016.4
20260507065804 15 26 3.2 8.0 0.00 1.45 1.02 90 1016.5
20260507065726 15 26 3.2 8.0 0.00 1.45 1.02 91 1016.5
20260507065604 15 26 3.2 6.4 0.00 1.45 1.02 91 1016.5
20260507065504 15 23 3.2 6.4 0.00 1.45 1.02 90 1016.3
20260507065404 15 19 3.2 6.4 0.00 1.45 1.02 90 1016.6
20260507065306 15 17 3.2 6.4 0.00 1.45 1.02 90 1016.4
20260507065204 15 16 3.2 6.4 0.00 1.45 1.02 90 1016.1
20260507065124 15 16 3.2 6.4 0.00 1.45 1.02 90 1016.1
20260507065003 15 21 3.2 6.4 0.00 1.45 1.02 92 1016.3
20260507064903 15 17 3.2 6.4 0.00 1.45 1.02 91 1016.3
20260507064804 15 20 1.6 6.4 0.00 1.45 1.02 93 1016.3
20260507064703 15 18 1.6 6.4 0.00 1.45 1.02 92 1016.2
20260507064603 15 10 1.6 6.4 0.00 1.45 1.02 92 1016.1
20260507064503 15 5 1.6 6.4 0.00 1.45 1.02 91 1016.3
20260507064426 15 3 1.6 6.4 0.00 1.45 1.02 91 1016.3
20260507064325 15 359 1.6 6.4 0.00 1.45 1.02 91 1016.3
20260507064204 15 1 1.6 6.4 0.00 1.45 1.02 92 1016.3
20260507064105 15 5 1.6 6.4 0.00 1.45 1.02 93 1016.2
20260507064003 15 360 1.6 6.4 0.00 1.45 1.02 93 1016.2
20260507063924 15 359 1.6 6.4 0.00 1.45 1.02 93 1016.2
20260507063803 14 6 1.6 6.4 0.00 1.45 1.02 93 1016.4
20260507063704 14 9 1.6 6.4 0.00 1.45 1.02 93 1016.2
20260507063603 14 13 1.6 4.8 0.00 1.45 1.02 93 1016.1
20260507063503 14 23 1.6 6.4 0.00 1.45 1.02 93 1016.0
20260507063404 14 31 3.2 8.0 0.00 1.45 1.02 92 1016.2
20260507063304 14 36 3.2 8.0 0.00 1.45 1.02 92 1016.3
20260507063204 14 40 3.2 8.0 0.00 1.45 1.02 91 1016.2
20260507063104 14 39 3.2 8.0 0.00 1.45 1.02 91 1016.4
20260507063003 14 41 3.2 8.0 0.00 1.45 1.02 93 1016.1
20260507062903 14 38 3.2 8.0 0.00 1.45 1.02 93 1016.2
20260507062803 14 37 3.2 8.0 0.00 1.45 1.02 93 1016.2
20260507062725 14 37 3.2 8.0 0.00 1.45 1.02 94 1016.2
20260507062624 14 36 3.2 8.0 0.00 1.45 1.02 94 1015.9
20260507062503 14 33 3.2 8.0 0.00 1.45 1.02 95 1016.1
20260507062403 14 31 3.2 6.4 0.00 1.45 1.02 95 1016.1
20260507062306 14 30 3.2 6.4 0.00 1.45 1.02 95 1016.0
20260507062204 14 28 3.2 6.4 0.00 1.45 1.02 95 1016.1
20260507062104 14 30 3.2 6.4 0.00 1.45 1.02 95 1016.1
20260507062003 14 27 3.2 6.4 0.00 1.45 1.02 95 1016.0
20260507061904 14 24 3.2 6.4 0.00 1.45 1.02 95 1016.0
20260507061803 14 25 3.2 6.4 0.00 1.45 1.02 95 1016.0
20260507061703 14 25 3.2 6.4 0.00 1.45 1.02 95 1016.0
20260507061603 14 25 3.2 6.4 0.00 1.45 1.02 96 1015.9
20260507061503 14 26 3.2 6.4 0.00 1.45 1.02 96 1016.0
20260507061403 13 25 3.2 6.4 0.00 1.45 1.02 96 1016.0
20260507061304 13 19 3.2 6.4 0.00 1.45 1.02 96 1015.9
20260507061204 13 11 1.6 6.4 0.00 1.45 1.02 95 1016.0
20260507061103 13 5 1.6 6.4 0.00 1.45 1.02 96 1016.3
20260507061003 13 8 1.6 6.4 0.00 1.45 1.02 98 1016.1
20260507060903 13 20 1.6 6.4 0.00 1.45 1.02 98 1016.1
20260507060824 13 24 1.6 6.4 0.00 1.45 1.02 98 1016.1
20260507060703 13 21 1.6 4.8 0.00 1.45 1.02 98 1016.1
20260507060625 13 23 1.6 4.8 0.00 1.45 1.02 98 1016.1
20260507060504 13 14 1.6 4.8 0.00 1.45 1.02 98 1016.0
20260507060403 13 6 1.6 4.8 0.00 1.45 1.02 98 1016.0
20260507060303 13 13 1.6 4.8 0.00 1.45 1.02 98 1016.0
20260507060204 13 15 1.6 4.8 0.00 1.45 1.02 98 1016.1
20260507060103 13 24 1.6 4.8 0.00 1.45 1.02 98 1016.0
20260507060004 13 20 1.6 4.8 0.00 1.45 1.02 98 1015.8
20260507055903 13 11 1.6 4.8 0.00 1.45 1.02 98 1015.9
20260507055824 13 4 1.6 4.8 0.00 1.45 1.02 98 1015.9
20260507055724 13 358 1.6 4.8 0.00 1.45 1.02 98 1015.9
20260507055603 13 353 1.6 4.8 0.00 1.45 1.02 98 1016.0
20260507055504 13 347 1.6 4.8 0.00 1.45 1.02 98 1016.0
20260507055425 13 347 1.6 4.8 0.00 1.45 1.02 98 1016.0
20260507055306 13 345 1.6 4.8 0.00 1.45 1.02 98 1016.0
20260507055203 13 346 1.6 4.8 0.00 1.45 1.02 98 1016.1
20260507055105 13 344 1.6 4.8 0.00 1.45 1.02 98 1016.0
20260507055003 13 345 1.6 4.8 0.00 1.45 1.02 98 1015.9
20260507054903 13 345 1.6 4.8 0.00 1.45 1.02 98 1016.1
20260507054825 13 344 1.6 4.8 0.00 1.45 1.02 98 1016.1
20260507054704 13 339 1.6 4.8 0.00 1.45 1.02 98 1016.1
20260507054624 13 339 1.6 4.8 0.00 1.45 1.02 98 1016.1
20260507054503 13 340 1.6 6.4 0.00 1.45 1.02 98 1015.9
20260507054403 13 339 1.6 6.4 0.00 1.45 1.02 98 1015.9
20260507054304 12 339 1.6 6.4 0.00 1.45 1.02 98 1016.1
20260507054203 12 337 1.6 6.4 0.00 1.45 1.02 98 1015.9
20260507054103 12 336 1.6 6.4 0.00 1.45 1.02 98 1016.0
20260507054003 12 332 1.6 6.4 0.00 1.45 1.02 98 1015.9
20260507053903 12 331 1.6 6.4 0.00 1.45 1.02 98 1016.1
20260507053803 12 336 1.6 6.4 0.00 1.45 1.02 98 1016.0
20260507053704 12 340 1.6 6.4 0.00 1.45 1.02 98 1016.1
20260507053604 12 343 1.6 6.4 0.00 1.45 1.02 98 1016.0
20260507053504 12 347 1.6 4.8 0.00 1.45 1.02 98 1016.1
20260507053404 12 347 1.6 3.2 0.00 1.45 1.02 98 1015.9
20260507053303 12 350 1.6 3.2 0.00 1.45 1.02 98 1015.9
20260507053224 12 352 1.6 3.2 0.00 1.45 1.02 98 1015.9
20260507053105 12 360 0.0 3.2 0.00 1.45 1.02 98 1016.0
20260507053024 12 5 0.0 3.2 0.00 1.45 1.02 98 1016.0
20260507052905 12 18 0.0 3.2 0.00 1.45 1.02 98 1016.0
20260507052804 12 19 0.0 3.2 0.00 1.45 1.02 98 1015.8
20260507052704 12 20 0.0 3.2 0.00 1.45 1.02 98 1015.9
20260507052603 12 19 0.0 3.2 0.00 1.45 1.02 98 1015.9
20260507052504 12 13 0.0 3.2 0.00 1.45 1.02 98 1015.8
20260507052403 12 7 0.0 3.2 0.00 1.45 1.02 98 1015.8
20260507052306 12 358 0.0 3.2 0.00 1.45 1.02 98 1015.9
20260507052226 12 354 1.6 3.2 0.00 1.45 1.02 98 1015.9
20260507052125 12 344 1.6 3.2 0.00 1.45 1.02 98 1015.8
20260507052024 12 333 1.6 3.2 0.00 1.45 1.02 98 1015.9
20260507051903 12 315 1.6 3.2 0.00 1.45 1.02 98 1015.8
20260507051804 12 307 1.6 3.2 0.00 1.45 1.02 98 1015.8
20260507051724 12 303 1.6 3.2 0.00 1.45 1.02 98 1015.8
20260507051603 12 302 1.6 3.2 0.00 1.45 1.02 98 1015.8
20260507051504 12 301 1.6 4.8 0.00 1.45 1.02 98 1015.8
20260507051425 12 302 1.6 4.8 0.00 1.45 1.02 98 1015.8
20260507051304 12 312 0.0 4.8 0.00 1.45 1.02 98 1015.9
20260507051203 12 313 1.6 4.8 0.00 1.45 1.02 98 1015.9
20260507051105 12 323 1.6 4.8 0.00 1.45 1.02 98 1016.0
20260507051003 12 330 1.6 4.8 0.00 1.45 1.02 98 1015.6
20260507050904 12 336 1.6 4.8 0.00 1.45 1.02 98 1015.8
20260507050803 12 342 1.6 4.8 0.00 1.45 1.02 98 1015.8
20260507050704 12 345 1.6 4.8 0.00 1.45 1.02 98 1015.7
20260507050604 12 347 1.6 4.8 0.00 1.45 1.02 98 1015.9
20260507050525 12 349 1.6 4.8 0.00 1.45 1.02 98 1015.9
20260507050403 12 355 1.6 3.2 0.00 1.45 1.02 98 1015.9
20260507050303 12 354 1.6 3.2 0.00 1.45 1.02 98 1015.9
20260507050226 12 359 0.0 3.2 0.00 1.45 1.02 98 1015.9
20260507050104 12 355 1.6 4.8 0.00 1.45 1.02 98 1015.7
20260507050005 12 356 1.6 4.8 0.00 1.45 1.02 98 1015.8
20260507045903 12 359 1.6 4.8 0.00 1.45 1.02 98 1015.8
20260507045804 12 3 1.6 4.8 0.00 1.45 1.02 98 1015.7
20260507045704 12 4 1.6 4.8 0.00 1.45 1.02 98 1015.8
20260507045603 12 5 1.6 4.8 0.00 1.45 1.02 98 1015.6
20260507045503 12 7 1.6 4.8 0.00 1.45 1.02 98 1015.7
20260507045404 12 8 1.6 4.8 0.00 1.45 1.02 98 1015.7
20260507045306 12 11 1.6 4.8 0.00 1.45 1.02 98 1015.8
20260507045203 12 9 1.6 4.8 0.00 1.47 1.02 98 1015.7
20260507045103 12 10 1.6 4.8 0.00 1.50 1.02 98 1015.6
20260507045005 12 9 1.6 4.8 0.00 1.50 1.02 98 1015.5
20260507044905 12 9 1.6 4.8 0.00 1.50 1.02 98 1015.6
20260507044804 12 9 1.6 4.8 0.00 1.50 1.02 98 1015.6
20260507044703 12 16 1.6 4.8 0.00 1.50 1.02 98 1015.5
20260507044603 12 17 1.6 4.8 0.00 1.50 1.02 98 1015.6
20260507044503 12 21 1.6 4.8 0.00 1.50 1.02 97 1015.6
20260507044403 12 22 1.6 4.8 0.00 1.50 1.02 97 1015.4
20260507044303 12 26 1.6 4.8 0.00 1.52 1.02 97 1015.4
20260507044205 12 29 1.6 4.8 0.00 1.52 1.02 97 1015.5
20260507044105 12 30 1.6 3.2 0.00 1.52 1.02 97 1015.5
20260507044024 12 31 1.6 3.2 0.00 1.52 1.02 97 1015.5
20260507043904 12 31 1.6 4.8 0.00 1.55 1.02 97 1015.5
20260507043803 12 31 1.6 4.8 0.00 1.55 1.02 97 1015.3
20260507043703 12 25 1.6 4.8 0.00 1.55 1.02 97 1015.3
20260507043624 12 24 1.6 4.8 0.00 1.55 1.02 97 1015.3
20260507043505 12 25 1.6 6.4 0.00 1.55 1.02 97 1015.4
20260507043403 12 24 1.6 6.4 0.00 1.55 1.02 97 1015.4
20260507043304 12 20 1.6 6.4 0.00 1.55 1.02 97 1015.3
20260507043203 12 16 1.6 6.4 0.00 1.55 1.02 97 1015.5
20260507043103 12 19 1.6 6.4 0.00 1.55 1.02 97 1015.6
20260507043004 12 18 1.6 6.4 0.00 1.57 1.02 97 1015.6
20260507042904 12 19 1.6 6.4 0.00 1.57 1.02 97 1015.7
20260507042804 12 23 1.6 6.4 0.00 1.57 1.02 97 1015.4
20260507042703 12 26 1.6 6.4 0.00 1.57 1.02 97 1015.7
20260507042605 12 29 1.6 6.4 0.00 1.57 1.02 97 1015.5
20260507042524 12 29 1.6 6.4 0.00 1.57 1.02 97 1015.5
20260507042403 12 25 1.6 4.8 0.00 1.57 1.02 97 1015.6
20260507042324 12 26 1.6 4.8 0.00 1.57 1.02 97 1015.6
20260507042203 12 27 1.6 4.8 0.00 1.57 1.02 97 1015.6
20260507042103 12 29 1.6 4.8 0.00 1.57 1.02 97 1015.6
20260507042004 12 30 1.6 4.8 0.00 1.57 1.02 97 1015.5
20260507041904 12 30 1.6 4.8 0.00 1.57 1.02 97 1015.5
20260507041804 12 28 1.6 4.8 0.00 1.57 1.02 97 1015.4
20260507041703 12 27 1.6 4.8 0.00 1.57 1.02 97 1015.3
20260507041603 12 26 1.6 4.8 0.00 1.57 1.02 97 1015.3
20260507041505 12 28 1.6 4.8 0.00 1.57 1.02 97 1015.4
20260507041405 12 31 1.6 4.8 0.00 1.57 1.02 97 1015.5
20260507041305 12 33 1.6 4.8 0.00 1.57 1.02 97 1015.5
20260507041203 12 34 1.6 4.8 0.00 1.57 1.02 97 1015.5
20260507041103 12 33 1.6 4.8 0.00 1.57 1.02 97 1015.5
20260507041004 12 34 1.6 4.8 0.00 1.57 1.02 97 1015.5
20260507040903 12 34 1.6 4.8 0.00 1.57 1.02 97 1015.3
20260507040803 12 35 1.6 4.8 0.00 1.57 1.02 97 1015.3
20260507040703 12 35 1.6 4.8 0.00 1.57 1.02 97 1015.3
20260507040603 12 34 1.6 4.8 0.00 1.57 1.02 97 1015.3
20260507040503 12 34 1.6 4.8 0.00 1.57 1.02 97 1015.5
20260507040404 12 34 1.6 4.8 0.00 1.57 1.02 97 1015.5
20260507040303 12 34 1.6 4.8 0.00 1.57 1.02 97 1015.3
20260507040203 12 37 1.6 4.8 0.00 1.57 1.02 97 1015.4
20260507040124 12 38 1.6 4.8 0.00 1.57 1.02 97 1015.4
20260507040003 12 34 1.6 4.8 0.00 1.57 1.02 97 1015.4
20260507035925 12 33 1.6 4.8 0.00 1.57 1.02 97 1015.4
20260507035804 12 30 1.6 4.8 0.00 1.57 1.02 97 1015.5
20260507035724 12 29 1.6 4.8 0.00 1.57 1.02 97 1015.5
20260507035603 12 27 1.6 4.8 0.00 1.57 1.02 97 1015.5
20260507035504 12 25 1.6 4.8 0.00 1.57 1.02 97 1015.3
20260507035404 12 26 1.6 4.8 0.00 1.57 1.02 97 1015.4
20260507035306 12 26 1.6 4.8 0.00 1.57 1.02 97 1015.5
20260507035205 12 24 1.6 4.8 0.00 1.57 1.02 97 1015.3
20260507035126 12 22 1.6 4.8 0.00 1.57 1.02 97 1015.3
20260507035027 12 23 1.6 4.8 0.00 1.57 1.02 97 1015.4
20260507034906 12 23 1.6 4.8 0.00 1.57 1.02 97 1015.5
20260507034805 12 25 1.6 4.8 0.00 1.57 1.02 97 1015.3
20260507034705 12 24 1.6 4.8 0.00 1.57 1.02 97 1015.4
20260507034605 12 26 1.6 4.8 0.00 1.57 1.02 97 1015.5
20260507034505 12 28 1.6 4.8 0.00 1.57 1.02 97 1015.5
20260507034405 12 28 1.6 4.8 0.00 1.57 1.02 97 1015.4
20260507034326 12 29 3.2 6.4 0.00 1.57 1.02 97 1015.4
20260507034205 12 28 1.6 6.4 0.00 1.57 1.02 97 1015.4
20260507034105 12 29 1.6 6.4 0.00 1.57 1.02 97 1015.5
20260507034005 12 29 1.6 6.4 0.00 1.57 1.02 97 1015.4
20260507033905 12 26 1.6 6.4 0.00 1.57 1.02 97 1015.5